                ,  0.290,  0.386,  0.483,  0.580,  0.676,  0.773,  0.869,  0.966,  1.063,  1.159,  1.256,  1.352,  1.449,  1.545,  1.642,  1.739,  1.835,  1.932,  2.028,  2.125,  2.222,  2.318,  2.415,  2.511,  2.608,  2.705,  2.801,  2.898,  2.994,  3.091,  3.188,  3.284,  3.381,  3.477,  3.574,  3.671,  3.767,  3.864,  3.960,  4.057,  4.153,  4.250,  4.347,  4.443,  4.540,  4.636,  4.733,  4.830,  4.926,  5.023,  5.119,  5.216,  5.313,  5.409,  5.506,  5.602,  5.699,  5.796
2001/09/14 00:00,  999.0,  999.0,   -1.2,    1.2,  999.0,    3.6,   20.4,   21.7,  999.0,  999.0,  999.0,  999.0,  999.0,  999.0,  999.0,  999.0,  999.0,  999.0,  999.0,  999.0,  999.0,  999.0,  999.0,  999.0,  999.0,  999.0,  999.0,  999.0,  999.0,  999.0,  999.0,  999.0,  999.0,  999.0,  999.0,  999.0,  999.0,  999.0,  999.0,  999.0,  999.0,  999.0,  999.0,  999.0,  999.0,  999.0,  999.0,  999.0,  999.0,  999.0,  999.0,  999.0,  999.0,  999.0,  999.0,  999.0,  999.0,  999.0
2001/09/14 00:10,  999.0,    0.8,   -0.1,   -0.6,   -1.5,   -4.4,   -1.5,   -1.4,   -4.3,  999.0,   -4.6,  999.0,  999.0,   -6.3,  999.0,  999.0,  999.0,  999.0,  999.0,  999.0,  999.0,  999.0,  999.0,  999.0,  999.0,  999.0,  999.0,  999.0,  999.0,  999.0,  999.0,  999.0,  -20.5,  -21.1,  -20.5,  -20.7,  999.0,  -21.0,  -20.7,  -20.7,  999.0,  999.0,  999.0,  -20.5,  999.0,  -20.7,  -20.8,  -21.0,  -20.9,  -20.7,  999.0,  -20.6,  999.0,  -18.3,  -17.5,  -17.2,  999.0,  -16.9
2001/09/14 00:20,  999.0,   -0.2,   -1.0,   -1.3,   -1.6,   -3.0,   -2.3,   -3.5,   -5.1,   -4.2,   -4.6,  -13.3,  999.0,  999.0,  999.0,  999.0,  999.0,  999.0,  -21.3,  999.0,  999.0,  -20.0,  999.0,  -29.1,  -31.2,  -27.4,  -26.9,  -31.9,  -31.6,  -32.3,  -35.1,  999.0,  999.0,  -40.0,  -38.8,  -41.4,  -41.1,  -42.2,  -41.9,  999.0,  -27.5,  999.0,  -41.5,  999.0,  -42.0,  999.0,  999.0,  -33.8,  -34.0,  -34.2,  -33.5,  -33.4,  -33.6,  -33.9,  -32.4,  -32.6,  -35.3,  -27.0
2001/09/14 00:30,  999.0,   -3.6,   -4.1,   -4.1,   -3.5,   -8.2,   -7.6,   -3.1,  -11.9,   -5.7,   -5.8,   -7.5,  -13.4,  -14.4,  -14.4,   -7.4,   -9.5,  -12.5,   -8.0,  -10.1,   -8.5,   -8.5,   -7.5,   -6.0,   -6.3,   -5.7,   -5.5,   -5.5,   -5.9,   -6.0,   -6.6,   -8.7,   -6.8,   -7.3,   -8.1,   -7.1,  -14.4,   -6.8,   -7.1,  -15.8,   -7.1,   -6.9,  -14.6,  -14.4,  -14.2,  -14.6,  -13.9,  -11.8,   -9.2,   -7.9,   -7.5,   -7.3,   -6.6,   -6.1,   -6.0,   -9.5,   -7.2,   -7.5
2001/09/14 00:40,  999.0,   -1.3,   -1.6,   -1.7,   -2.6,   -3.5,   -4.8,   -6.1,   -6.7,   -6.6,   -5.3,   -4.5,   -4.2,   -4.1,   -3.7,   -3.5,   -3.3,   -2.9,   -2.9,   -2.2,   -2.2,   -3.1,   -2.7,   -4.5,   -4.9,   -6.4,   -5.4,   -5.5,   -4.9,   -5.3,   -4.6,   -6.4,   -6.9,   -7.9,   -8.1,   -6.4,   -5.1,   -6.0,   -5.8,   -5.3,   -6.0,   -6.5,   -6.8,   -8.6,   -8.0,   -8.1,   -7.2,   -7.0,   -5.3,   -5.6,   -4.7,   -4.8,   -4.7,   -5.2,   -5.2,   -6.3,   -5.9,   -6.4
2001/09/14 00:50,  999.0,   -0.9,   -0.8,   -1.0,   -1.5,   -3.9,   -5.0,   -6.0,   -5.3,   -4.7,   -4.8,   -5.4,   -4.5,   -5.0,   -5.6,   -5.2,   -5.1,   -4.5,   -4.0,   -4.0,   -4.6,   -5.2,   -5.8,   -6.0,   -6.3,   -6.4,   -5.7,   -5.2,   -5.2,   -5.4,   -6.2,   -6.4,   -7.0,   -7.0,   -7.2,   -7.2,   -7.3,   -7.1,   -7.3,   -7.7,   -8.2,   -8.1,   -8.6,   -8.8,   -8.7,   -8.6,   -7.9,   -8.9,   -9.4,   -9.8,  -10.0,  -10.1,   -9.8,   -8.8,   -8.5,   -7.8,   -7.7,   -7.7
2001/09/14 01:00,  999.0,   -2.4,   -2.5,   -2.3,   -3.0,   -4.2,   -5.7,   -5.2,   -4.6,   -4.1,   -3.6,   -3.9,   -4.5,   -5.3,   -5.0,   -4.8,   -4.8,   -4.9,   -5.5,   -5.8,   -6.1,   -6.5,   -7.7,   -8.8,   -9.9,   -9.9,   -9.7,   -9.1,   -8.3,   -9.1,  -10.0,   -9.2,   -9.0,   -8.7,   -7.1,   -7.0,   -7.1,   -5.3,   -6.2,   -6.7,   -5.6,   -4.9,   -4.8,   -5.1,   -4.4,   -3.7,   -2.4,   -1.7,   -1.9,   -1.9,   -1.0,   -0.1,    0.8,    0.4,    1.1,    1.4,    1.2,    1.1
2001/09/14 01:10,  999.0,   -2.4,   -2.6,   -2.6,   -3.9,   -3.3,   -4.1,   -4.2,   -4.6,   -4.4,   -4.9,   -5.2,   -5.0,   -4.9,   -4.7,   -4.6,   -4.3,   -3.9,   -3.9,   -3.8,   -3.2,   -4.7,   -5.5,   -5.7,   -5.6,   -4.9,   -3.8,   -2.8,   -3.1,   -3.6,   -4.8,   -5.1,   -5.9,   -2.9,   -4.6,   -3.9,   -4.0,   -2.6,   -3.0,   -4.5,   -3.0,   -1.6,   -1.2,   -1.5,   -0.9,  999.0,   -0.7,   -0.4,   -0.4,   -0.8,  999.0,  999.0,   -0.3,   -0.5,   -0.6,   -0.5,   -0.7,   -0.2
2001/09/14 01:20,  999.0,  999.0,   -1.6,   -1.9,   -2.4,   -2.7,   -2.9,   -5.8,   -6.2,   -6.9,   -3.8,   -3.6,   -3.7,   -3.7,   -3.4,   -2.2,  999.0,   -2.4,  999.0,  -12.7,  999.0,  999.0,  999.0,  999.0,  999.0,  999.0,  999.0,  999.0,  999.0,  999.0,  999.0,  999.0,  999.0,  999.0,   -0.8,  999.0,   -0.9,  999.0,  999.0,  999.0,  999.0,  999.0,  999.0,  999.0,  999.0,  999.0,  999.0,  999.0,  999.0,   -0.3,  999.0,  999.0,   -0.6,  999.0,  999.0,   -0.4,  999.0,  999.0
2001/09/14 01:30,  999.0,  999.0,  999.0,  999.0,   -2.5,   -2.7,   -2.7,   -3.6,   -3.9,   -4.2,   -3.8,   -3.8,   -6.1,  999.0,  999.0,   -5.0,   -5.3,   -5.6,  999.0,  999.0,  999.0,  999.0,  999.0,  -11.2,  -11.9,  -14.7,  -14.7,  999.0,  999.0,  999.0,  999.0,  999.0,  999.0,  -34.5,  -35.9,  -34.9,  -37.4,  -36.2,  999.0,  -39.5,  -39.4,  -40.5,  -39.8,  -43.1,  -42.2,  -42.2,  -42.1,  999.0,  -42.1,  999.0,  999.0,  999.0,  999.0,  -41.9,  -41.6,  -41.8,  999.0,  999.0
2001/09/14 01:40,  999.0,  999.0,  999.0,  999.0,  999.0,  999.0,  999.0,   -3.7,   -3.6,   -5.4,   -5.7,   -4.8,  999.0,  999.0,  999.0,  999.0,  999.0,  999.0,  999.0,  999.0,  -12.0,  999.0,  999.0,  999.0,  -20.4,  999.0,  999.0,  -25.3,  999.0,  999.0,  999.0,  999.0,  -39.5,  -40.3,  -41.1,  -41.6,  -41.8,  -41.2,  -41.4,  -41.5,  -41.6,  -41.6,  -41.5,  999.0,  -41.6,  -42.0,  -41.8,  -41.7,  -41.9,  -41.9,  -41.8,  999.0,  -42.0,  -42.2,  -41.9,  -41.7,  -41.7,  -41.9
2001/09/14 01:50,  999.0,  999.0,  999.0,  999.0,  999.0,   -3.7,   -3.2,   -4.0,   -4.3,   -4.6,   -4.9,   -4.8,  999.0,  999.0,  999.0,  999.0,  999.0,  999.0,  999.0,  999.0,  999.0,  999.0,  -15.0,  -16.4,  -19.8,  -20.8,  -21.1,  999.0,  999.0,  999.0,  999.0,  999.0,  999.0,  -41.4,  -41.8,  -41.8,  999.0,  -41.8,  -41.5,  -41.9,  999.0,  -42.1,  999.0,  999.0,  -42.2,  -42.2,  -41.9,  -42.0,  -41.9,  -41.2,  -41.7,  999.0,  999.0,  -41.7,  -41.5,  -41.8,  -42.1,  -41.6
2001/09/14 02:00,  999.0,  -10.2,   -0.2,   -1.1,   -2.4,   -1.4,   -3.6,   -4.3,   -3.1,  999.0,  999.0,  999.0,  999.0,  999.0,  999.0,  999.0,  999.0,  999.0,  999.0,  999.0,  999.0,  -15.8,  -17.3,  -18.4,  -21.6,  -22.0,  -21.1,  -24.5,  -26.4,  999.0,  999.0,  999.0,  999.0,  999.0,  999.0,  -41.8,  -42.3,  -42.3,  999.0,  -42.1,  999.0,  -42.0,  -41.9,  -42.1,  -41.7,  -41.8,  -42.5,  -41.8,  999.0,  999.0,  999.0,  -41.7,  -42.0,  999.0,  -41.8,  -41.6,  -42.6,  999.0
2001/09/14 02:10,  999.0,   -0.3,  999.0,   -2.1,   -2.7,   -2.1,  999.0,   -2.4,  999.0,    0.9,  999.0,  999.0,  999.0,  999.0,  999.0,  999.0,  999.0,  999.0,  999.0,  999.0,  999.0,  999.0,  -15.2,  999.0,  999.0,  -18.8,  -20.8,  -22.7,  999.0,  -25.6,  999.0,  999.0,  999.0,  -41.7,  999.0,  999.0,  999.0,  -41.3,  -41.3,  -40.1,  999.0,  -39.3,  999.0,  -41.7,  -41.3,  -41.7,  -41.3,  -41.4,  999.0,  -41.5,  999.0,  -41.5,  -41.5,  -42.1,  -41.5,  -41.4,  -41.6,  999.0
2001/09/14 02:20,  999.0,  999.0,  999.0,  999.0,   -7.7,   -4.0,   -1.2,  999.0,   -1.0,   -1.4,   -0.8,   -0.7,   -7.4,   -7.7,  -11.2,  -10.0,  999.0,   -8.1,   -7.0,   -0.4,  999.0,   -0.7,    3.9,   -0.6,    6.8,  999.0,    3.0,    2.3,   -0.5,  999.0,   -0.8,   -0.5,   -0.4,  999.0,   -0.5,   -0.5,   -0.5,   -0.3,  999.0,  999.0,    2.5,    3.9,    4.1,  999.0,  999.0,  999.0,   -0.6,  999.0,  999.0,   -0.5,   -0.5,  999.0,   -0.2,  999.0,   -0.7,  999.0,  999.0,   -0.6
2001/09/14 02:30,  999.0,   -9.2,   -9.7,   -7.3,  -14.4,  -13.0,  -17.5,  -23.7,  -18.4,  -18.8,  -14.4,   -7.5,  999.0,   -5.8,  -14.8,  -12.2,    1.1,   -2.1,   -5.6,   -4.0,   -5.0,   -0.6,   -4.7,    0.6,    4.4,    3.1,    3.8,    3.3,    1.9,   -7.4,  -10.1,  -10.2,   -7.7,   -9.3,   -8.5,   -6.6,   -7.5,   -8.0,   -2.3,   -3.9,   -6.0,   -5.2,   -3.3,   -4.4,   -2.2,   -3.4,   -3.0,   -3.7,  999.0,   -5.7,   -9.2,  999.0,  999.0,   -0.1,  999.0,  999.0,  999.0,  999.0
2001/09/14 02:40,  999.0,   -2.3,   -1.2,   -1.7,   -2.1,   -2.8,   -3.2,   -3.7,   -3.7,   -3.8,   -3.4,   -4.5,   -4.8,   -5.5,   -4.7,   -4.1,   -5.0,   -4.6,   -4.6,   -3.8,   -4.9,   -4.2,   -5.0,   -6.0,   -6.8,   -6.7,   -6.7,   -6.8,   -6.0,   -6.3,   -5.9,   -6.5,   -5.4,   -4.6,   -4.5,   -4.5,   -3.3,   -2.2,   -2.3,   -2.2,   -4.6,   -6.1,   -7.7,   -7.5,   -6.8,   -7.8,   -9.6,  -10.2,  -10.1,  -12.2,  -10.8,  -10.9,  999.0,  999.0,  999.0,  999.0,  999.0,  999.0
2001/09/14 02:50,    1.5,  999.0,  999.0,   -2.1,   -1.5,   -0.2,   -1.5,   -2.8,   -1.9,   -0.5,    0.1,    0.1,   -0.2,   -0.3,   -0.4,   -0.1,    0.2,   -1.2,   -1.7,   -2.2,   -3.1,   -4.2,   -4.3,   -5.4,   -6.6,   -4.6,   -5.1,   -7.5,   -3.8,   -3.8,   -2.1,   -3.1,   -3.6,   -4.1,   -4.1,   -3.8,   -4.8,   -2.1,   -6.8,   -1.4,   -1.3,   -3.3,   -4.0,   -5.7,   -6.1,   -6.1,   -5.3,   -7.8,   -5.8,   -7.2,   -5.7,   -5.2,   -5.0,   -3.5,   -3.7,   -4.4,   -4.6,  999.0
2001/09/14 03:00,  999.0,   -0.9,   -1.8,   -3.4,   -3.8,   -6.0,   -4.8,   -3.8,   -4.0,   -4.1,   -5.0,   -5.4,   -6.1,   -2.5,   -1.9,   -0.5,    1.6,    0.8,   -3.3,    1.2,   -2.6,   13.2,   -8.9,    6.5,    9.3,   -0.7,   -2.0,   -8.6,   -0.4,  999.0,  999.0,   -7.0,  999.0,  999.0,   -6.3,  999.0,  999.0,    2.7,    1.6,  999.0,  999.0,  999.0,  999.0,  999.0,  999.0,    1.5,   -2.2,  999.0,  999.0,  999.0,  999.0,  999.0,   -0.8,   13.1,   27.8,   20.2,    9.9,   20.1
2001/09/14 03:10,  999.0,  999.0,  999.0,  999.0,  999.0,  999.0,   -1.4,   -3.6,   -4.5,  999.0,   -3.3,   -3.3,   -3.6,   -3.9,   -3.7,  999.0,   -4.0,   -2.9,   -2.0,   -0.5,    0.9,    1.6,    2.5,  999.0,    6.6,    9.0,  999.0,  999.0,   11.4,   12.5,  999.0,  999.0,  999.0,  999.0,  999.0,  999.0,  999.0,  999.0,  999.0,  999.0,  999.0,  999.0,  999.0,  999.0,  999.0,  999.0,  999.0,   41.7,  999.0,  999.0,   41.9,   41.7,   42.2,  999.0,   41.9,   42.3,   41.7,   41.9
2001/09/14 03:20,  999.0,  999.0,  999.0,  999.0,   -1.0,   -0.5,   -1.2,   -4.0,   -4.2,   -3.5,   -3.8,   -4.6,   -5.6,   -4.1,  999.0,   -3.6,   -3.8,  999.0,  999.0,  999.0,  999.0,  999.0,  999.0,  999.0,  999.0,  999.0,  999.0,  999.0,  999.0,  999.0,  999.0,  999.0,  999.0,  999.0,  999.0,  999.0,  999.0,  999.0,  999.0,  999.0,   41.6,  999.0,  999.0,   41.7,   41.9,   41.9,  999.0,   41.7,   41.5,   41.6,   41.9,   41.9,   42.2,   42.0,   41.7,   42.1,   41.6,   41.4
2001/09/14 03:30,  999.0,  999.0,    4.1,   -0.7,  999.0,   -1.8,   -2.8,   -1.3,   -2.1,   -2.5,   -3.4,   -3.1,   -4.1,   -3.2,  999.0,  999.0,  999.0,  999.0,  999.0,  999.0,  999.0,  999.0,  999.0,  999.0,  999.0,  999.0,  999.0,  999.0,  999.0,  999.0,  999.0,   20.9,  999.0,   38.8,   40.1,   40.7,   39.7,   41.6,   41.7,   41.3,   41.2,   41.8,   41.3,   41.7,   41.7,   41.9,   41.7,   41.5,   34.4,   41.4,   27.7,   42.0,   36.5,   36.5,   41.6,   27.7,   41.6,   41.8
2001/09/14 03:40,  999.0,  999.0,  999.0,   -0.8,   -1.3,   -1.3,  999.0,  999.0,    0.5,  999.0,   -4.6,   -3.9,   -3.9,   -3.1,   -3.3,  999.0,  999.0,  999.0,  999.0,  999.0,  999.0,  999.0,  999.0,  999.0,  999.0,  999.0,  999.0,  999.0,  999.0,  999.0,  999.0,  999.0,   38.6,   40.0,  999.0,   41.5,   41.7,  999.0,   42.1,   41.7,  999.0,   41.8,  999.0,   41.4,   41.6,   41.9,   42.2,   41.6,   41.7,   41.8,  999.0,   42.0,  999.0,   41.2,   41.5,   41.5,   41.9,   41.7
2001/09/14 03:50,  999.0,  999.0,  999.0,   -2.5,   -1.8,   -3.0,   -2.7,   -2.5,   -4.8,   -5.0,  999.0,   -3.6,   -3.5,  999.0,  999.0,  999.0,  999.0,  999.0,  999.0,  999.0,  999.0,  999.0,  999.0,  999.0,  999.0,  999.0,  999.0,  999.0,  999.0,   36.2,  999.0,  999.0,   41.5,   41.7,  999.0,   42.2,   41.5,   42.0,   41.7,   41.8,   41.8,   41.5,   41.8,   41.6,   41.5,   41.9,   41.6,   41.2,   42.2,   41.8,  999.0,   41.9,   41.9,   42.6,   41.6,   43.0,   42.2,   42.4
2001/09/14 04:00,  999.0,  999.0,  999.0,   -1.4,   -1.9,   -1.0,   -1.9,   -2.8,   -3.4,   -3.8,   -3.8,   -3.9,   -3.5,  999.0,  999.0,  999.0,  999.0,  999.0,  999.0,  999.0,  999.0,  999.0,  999.0,  999.0,  999.0,  999.0,  999.0,   35.3,   35.6,  999.0,  999.0,  999.0,   40.8,   41.0,   41.8,  999.0,   41.7,   41.6,   41.6,   41.4,   41.8,   41.4,   41.6,   41.9,   41.5,   41.6,   41.5,   41.5,   41.2,  999.0,   42.1,  999.0,   41.7,   41.2,  999.0,   42.1,   41.4,   42.3
2001/09/14 04:10,  999.0,  999.0,   -2.4,   -1.0,   -0.7,   -2.0,   -2.9,   -3.2,   -3.4,   -3.8,   -4.4,   -4.7,   -4.3,   -5.5,   -4.7,   -6.0,   -7.1,   -5.7,  999.0,  999.0,  999.0,  999.0,  999.0,  999.0,  999.0,  999.0,  999.0,  999.0,  999.0,  999.0,  999.0,  999.0,  999.0,   41.7,  999.0,   42.1,   42.2,  999.0,   42.4,   41.9,   42.0,   41.8,   41.8,   41.6,  999.0,   41.9,   42.2,   42.2,  999.0,  999.0,   42.1,   42.0,  999.0,  999.0,  999.0,  999.0,   42.4,  999.0
2001/09/14 04:20,  999.0,   -1.9,   -0.4,   -3.8,   -2.0,   -2.6,   -3.5,   -3.7,   -4.2,   -4.4,   -4.9,   -5.2,   -5.7,   -5.5,   -5.7,   -6.4,   -6.9,   -7.8,   -5.1,   -3.6,   -3.1,   -4.4,   -1.5,  999.0,  999.0,  999.0,    4.6,    4.1,    3.7,    3.9,    5.2,    1.7,    4.1,    4.8,   -0.8,  999.0,   -0.9,  999.0,   -1.1,  999.0,  999.0,  999.0,   -0.9,  999.0,  999.0,  999.0,   -0.7,  999.0,   -0.6,  999.0,   -1.0,  999.0,   -1.0,   -0.9,  999.0,   -0.7,   -1.0,  999.0
2001/09/14 04:30,  999.0,   -2.4,   -2.4,   -2.9,   -2.1,   -2.6,   -2.6,   -4.2,   -4.0,   -4.6,   -4.4,   -4.6,   -5.2,   -5.1,   -6.0,  999.0,  999.0,  999.0,  999.0,  999.0,  999.0,  999.0,  999.0,  999.0,  999.0,  999.0,  999.0,  999.0,  999.0,  999.0,  999.0,   -3.0,  999.0,  999.0,  999.0,   -0.9,  999.0,   -0.7,   -0.9,   -1.1,   -0.9,   -0.6,   -0.8,   -0.4,   -0.2,   -0.8,  999.0,  999.0,  999.0,   -0.8,   -0.4,   -0.7,  999.0,  999.0,   -0.7,   -0.6,   -1.0,   -0.6
2001/09/14 04:40,  999.0,  999.0,   -1.9,   -2.4,   -2.5,   -3.5,   -3.5,   -2.3,   -5.0,   -4.4,   -3.6,  999.0,  999.0,  999.0,  999.0,  999.0,  999.0,  999.0,  999.0,  999.0,  999.0,  999.0,  999.0,  999.0,  999.0,  999.0,  999.0,  999.0,  999.0,   -4.6,  999.0,  999.0,   -2.3,   -0.7,   -0.7,   -0.8,  999.0,  999.0,   -0.6,   -0.6,   -0.6,   -0.5,   -0.8,   -0.6,  999.0,   -0.7,   -0.8,   -0.6,  999.0,   -0.0,  999.0,  999.0,   -0.6,  999.0,   -0.6,   -0.4,  999.0,  999.0
2001/09/14 04:50,  999.0,   -1.2,   -2.0,   -1.0,  999.0,   -3.7,   -4.8,   -5.0,   -5.0,   -5.1,   -5.1,   -6.3,   -6.2,  999.0,  999.0,   -8.9,  999.0,  999.0,   -5.9,  999.0,  999.0,  -12.1,  999.0,   -9.6,  999.0,   -6.2,   -6.2,   -6.9,   -4.9,   -4.4,  999.0,   -2.7,   -0.5,   -1.5,   -0.6,  999.0,  999.0,   -0.7,  999.0,   -0.8,   -0.7,   -0.9,   -0.8,   -1.2,   -0.7,   -0.5,   -0.9,  999.0,   -0.4,   -0.7,   -1.1,   -0.4,   -0.5,   -0.5,   -0.3,   -0.8,   -1.1,   -1.0
2001/09/14 05:00,  999.0,  999.0,  999.0,   -2.7,   -0.6,   -4.5,   -4.9,   -4.7,   -5.2,  999.0,  999.0,   -4.4,  999.0,  999.0,  999.0,   -6.8,  999.0,  999.0,  999.0,  999.0,  999.0,  999.0,  -11.6,  999.0,  999.0,   -8.0,   -6.8,  999.0,  999.0,   -4.0,   -1.7,  999.0,   -1.0,   -0.9,   -0.8,   -0.3,   -0.6,   -0.8,   -1.0,  999.0,  999.0,   -1.3,   -0.6,   -1.1,  999.0,   -0.9,   -0.7,   -1.1,  999.0,   -0.4,   -0.5,  999.0,   -0.9,   -0.9,   -0.9,   -0.8,   -0.6,   -0.8
2001/09/14 05:10,  999.0,   -1.2,   -1.8,   -0.7,   -0.5,  999.0,   -2.6,   -3.7,   -0.2,  999.0,   -5.6,   -4.7,   -5.6,  999.0,  999.0,  999.0,  999.0,  999.0,  999.0,  999.0,  999.0,  999.0,  999.0,  999.0,  999.0,  999.0,  999.0,   -9.3,  999.0,   -5.2,  999.0,   -5.4,   -5.5,   -4.6,  999.0,  999.0,   -1.5,  999.0,   -0.9,   -0.8,  999.0,   -0.1,   -0.3,   -0.8,  999.0,   -0.6,   -1.3,   -1.4,  999.0,  999.0,   -0.9,   -0.5,  999.0,   -0.9,  999.0,   -0.7,  999.0,   -0.6
2001/09/14 05:20,  999.0,   -1.5,   -1.9,   -3.1,   -3.3,   -0.7,   -2.9,  999.0,   -4.7,   -4.0,  999.0,  999.0,  999.0,  999.0,  999.0,  999.0,  999.0,  999.0,  999.0,  999.0,  999.0,  999.0,  999.0,  999.0,  999.0,  999.0,  999.0,  999.0,  999.0,  999.0,  999.0,  999.0,  999.0,  999.0,  999.0,  999.0,  999.0,  999.0,  999.0,  999.0,  999.0,  999.0,  999.0,  999.0,  999.0,  999.0,  999.0,  999.0,  999.0,  999.0,  999.0,  999.0,  999.0,  999.0,  999.0,  999.0,  999.0,  999.0
2001/09/14 05:30,  999.0,   -1.7,   -3.9,   -2.3,   -3.2,   -2.5,  999.0,  999.0,  999.0,  999.0,   -5.4,  999.0,  999.0,  999.0,  999.0,  999.0,  999.0,  999.0,  999.0,  999.0,  999.0,  999.0,  999.0,  999.0,  999.0,  999.0,  999.0,  999.0,  999.0,  999.0,  999.0,  999.0,  999.0,  999.0,  999.0,  999.0,  999.0,  999.0,  999.0,  999.0,  999.0,  999.0,  999.0,  999.0,  999.0,  999.0,  999.0,  999.0,  999.0,  999.0,  999.0,  999.0,  999.0,  999.0,  999.0,  999.0,  999.0,  999.0
2001/09/14 05:40,  999.0,  999.0,  999.0,  999.0,  999.0,   13.0,  999.0,   12.6,   21.1,    7.9,    3.4,   20.9,   21.5,   12.4,   20.6,  999.0,  999.0,  999.0,  999.0,  999.0,  999.0,  999.0,  999.0,  999.0,  999.0,  999.0,  999.0,  999.0,  999.0,   33.8,  999.0,   35.7,  999.0,   38.0,  999.0,  999.0,  999.0,  999.0,   40.1,  999.0,  999.0,   41.7,  999.0,  999.0,  999.0,  999.0,  999.0,  999.0,  999.0,  999.0,  999.0,  999.0,  999.0,  999.0,   42.3,  999.0,   41.9,  999.0
2001/09/14 05:50,  999.0,   21.4,   21.6,  999.0,  999.0,  999.0,  999.0,  999.0,   21.6,   22.2,   21.4,   21.0,   21.1,   21.1,   21.3,   20.7,   21.7,   21.6,   22.9,   23.2,   25.7,   23.8,   26.1,   26.0,   29.5,   28.4,   29.9,   28.2,   32.9,   33.1,  999.0,   37.6,   37.8,   41.8,  999.0,   41.5,   40.8,  999.0,   41.5,   41.3,   41.5,   41.5,   41.3,   41.8,   41.9,   41.9,  999.0,   42.1,   41.5,   41.5,   41.5,  999.0,   41.5,   42.0,   41.5,  999.0,  999.0,  999.0
2001/09/14 06:00,  999.0,  999.0,   22.0,  999.0,   21.7,  999.0,   21.1,   19.7,   21.3,   22.1,   21.1,   21.5,   21.2,   21.2,   21.2,   21.1,  999.0,  999.0,  999.0,   24.6,  999.0,   25.7,   26.3,   27.3,  999.0,   29.5,   31.1,  999.0,   32.8,   33.7,   34.6,   36.0,   36.4,   38.1,   38.0,  999.0,   40.6,   42.1,  999.0,  999.0,   41.9,   42.0,   41.8,   42.6,   42.7,  999.0,  999.0,   42.1,   41.5,   41.8,  999.0,   41.6,   41.9,   41.6,  999.0,   41.0,   41.6,   41.7
2001/09/14 06:10,  999.0,    0.1,   -1.9,   -1.2,  999.0,    0.1,   10.8,   -2.2,  999.0,    7.6,  999.0,  999.0,  999.0,  999.0,  999.0,  999.0,  999.0,  999.0,  999.0,  999.0,  999.0,  999.0,  999.0,  999.0,  999.0,  999.0,  999.0,  999.0,  999.0,  999.0,  999.0,  999.0,  999.0,  999.0,  999.0,  999.0,  999.0,  999.0,  999.0,  999.0,  999.0,  999.0,   33.7,   31.6,  999.0,  999.0,  999.0,  999.0,  999.0,  999.0,  999.0,  999.0,  999.0,  999.0,  999.0,  999.0,  999.0,  999.0
2001/09/14 06:20,  999.0,  999.0,  999.0,  999.0,    0.5,  999.0,   -4.1,   -5.0,  999.0,  999.0,    1.1,    4.8,  999.0,  999.0,  999.0,  999.0,  999.0,  999.0,  999.0,  999.0,  999.0,  999.0,  999.0,  999.0,  999.0,  999.0,  999.0,  999.0,  999.0,  999.0,  999.0,  999.0,  999.0,  999.0,  999.0,  999.0,  999.0,  999.0,  999.0,  999.0,  999.0,  999.0,  999.0,  999.0,   27.7,  999.0,  999.0,  999.0,   41.3,   27.4,   42.1,  999.0,   27.4,   41.6,   41.6,   41.8,  999.0,   36.3
2001/09/14 06:30,  999.0,   -1.5,  999.0,  999.0,  999.0,  999.0,   -3.6,   -4.1,   -6.7,  999.0,  999.0,  999.0,  999.0,  999.0,  999.0,  999.0,  999.0,  999.0,  999.0,  999.0,  999.0,  999.0,  999.0,  999.0,  999.0,  999.0,   31.5,  999.0,   32.6,  999.0,   25.7,  999.0,  999.0,   31.2,   40.4,   41.5,   39.9,   40.3,  999.0,   42.1,  999.0,   42.1,   41.9,   41.8,  999.0,  999.0,   42.1,  999.0,  999.0,  999.0,  999.0,   41.9,  999.0,   41.8,  999.0,  999.0,  999.0,   41.6
2001/09/14 06:40,  999.0,  999.0,   -2.5,   -2.2,   -2.5,   -3.6,   -2.7,   -3.7,   -5.0,  999.0,  999.0,  999.0,  999.0,  999.0,  999.0,  999.0,  999.0,  999.0,  999.0,  999.0,  999.0,  999.0,  999.0,  999.0,  999.0,  999.0,  999.0,  999.0,  999.0,  999.0,  999.0,  999.0,  999.0,  999.0,   40.9,  999.0,   41.6,  999.0,   42.6,   42.3,   41.5,   42.0,   42.0,   41.9,   42.1,   41.9,   41.9,   42.0,   42.1,  999.0,   41.7,   41.5,  999.0,   41.9,   41.6,  999.0,   41.6,  999.0
2001/09/14 06:50,  999.0,   -0.5,    0.3,   -1.6,   -2.1,   -3.2,   -2.9,   -3.7,   -4.0,   -4.7,  999.0,  999.0,  999.0,  999.0,  999.0,  999.0,  999.0,  999.0,  999.0,  999.0,  999.0,  999.0,  999.0,  999.0,  999.0,  999.0,  999.0,  999.0,  999.0,  999.0,   38.2,  999.0,   37.7,   41.6,  999.0,  999.0,   41.6,   41.0,  999.0,   41.4,   42.1,   42.2,  999.0,   41.7,   41.9,   41.8,   41.5,   41.9,   41.7,  999.0,   41.7,  999.0,   42.6,   42.2,   42.2,   41.8,  999.0,   41.8
2001/09/14 07:00,  999.0,  999.0,  999.0,    0.1,   -0.5,   -2.3,   -2.7,   -3.3,   -4.6,  999.0,  999.0,  999.0,  999.0,  999.0,  999.0,  999.0,  999.0,  999.0,  999.0,  999.0,  999.0,  999.0,  999.0,  999.0,  999.0,  999.0,  999.0,  999.0,  999.0,  999.0,  999.0,   35.6,  999.0,  999.0,  999.0,   40.4,  999.0,   40.5,   41.0,   41.4,   41.7,   41.1,   41.7,   41.4,   41.8,   41.9,   41.7,   42.0,   41.5,  999.0,  999.0,   41.7,   41.4,   41.6,   41.7,   41.5,  999.0,  999.0
2001/09/14 07:10,  999.0,  999.0,   -5.6,   -8.2,   -6.2,   -3.1,   -5.2,   -7.6,   -4.1,  999.0,   -4.7,  999.0,  999.0,  999.0,  999.0,  999.0,  999.0,  999.0,  999.0,  999.0,  999.0,  999.0,   -4.0,  999.0,  999.0,  999.0,  999.0,   32.7,  999.0,  999.0,   10.1,  999.0,   38.2,   26.9,  999.0,   38.3,   38.6,  999.0,  999.0,   37.5,   41.8,  999.0,   31.4,  999.0,  999.0,   42.0,   20.2,   42.2,   41.9,   23.5,   42.5,  999.0,   26.8,  999.0,  999.0,   33.0,  999.0,  999.0
2001/09/14 07:20,  999.0,  999.0,   -1.2,   -1.0,   -2.3,   -2.2,   -4.2,   -4.9,  999.0,  999.0,  999.0,  999.0,  999.0,  999.0,  999.0,  999.0,  999.0,  999.0,  999.0,  999.0,  999.0,  999.0,  999.0,   27.2,  999.0,  999.0,  999.0,  999.0,   32.0,  999.0,   35.9,   35.3,   37.3,  999.0,  999.0,   40.6,   41.9,  999.0,   41.4,   41.2,   41.8,  999.0,   41.8,   41.8,   41.5,   41.4,   41.4,   41.9,   41.6,   42.2,  999.0,   42.1,  999.0,  999.0,   42.2,   41.8,   41.7,  999.0
2001/09/14 07:30,  999.0,  999.0,   -0.2,   -2.4,   -2.9,   -2.0,   -4.3,  999.0,   -4.5,  999.0,  999.0,  999.0,  999.0,  999.0,  999.0,  999.0,  999.0,  999.0,  999.0,  999.0,  999.0,  999.0,  999.0,   26.6,   27.4,  999.0,   29.1,  999.0,   30.9,   31.3,  999.0,   32.8,   33.5,   34.7,   35.4,  999.0,   36.5,  999.0,   39.4,   39.3,   39.6,   39.9,   40.1,  999.0,  999.0,  999.0,   42.7,   41.6,  999.0,   41.8,   41.4,  999.0,   42.6,   41.5,   41.9,   41.5,   41.4,   41.8
2001/09/14 07:40,  999.0,  999.0,   -0.5,   -1.6,    0.1,   -1.8,   -3.3,  999.0,  999.0,  999.0,  999.0,  999.0,  999.0,  999.0,  999.0,  999.0,  999.0,  999.0,  999.0,  999.0,  999.0,  999.0,  999.0,  999.0,  999.0,  999.0,   28.4,  999.0,   30.3,   31.5,   32.3,   32.5,   33.8,   34.1,   35.1,   35.7,   37.3,   37.7,   38.9,   39.4,  999.0,   39.0,  999.0,  999.0,  999.0,  999.0,  999.0,   41.7,   42.2,   42.0,  999.0,   41.7,  999.0,  999.0,  999.0,   41.9,   42.0,   41.6
2001/09/14 07:50,  999.0,  999.0,   -0.5,   -2.1,   -2.7,   -1.9,   -3.4,  999.0,  999.0,  999.0,  999.0,  999.0,  999.0,  999.0,  999.0,  999.0,  999.0,  999.0,  999.0,  999.0,  999.0,  999.0,  999.0,  999.0,  999.0,  999.0,   28.1,   29.5,   30.5,  999.0,  999.0,   32.6,   34.6,   33.8,   34.2,   34.8,   36.0,   36.8,   38.1,  999.0,  999.0,  999.0,   40.5,  999.0,   40.1,   41.5,  999.0,  999.0,  999.0,  999.0,   41.7,   41.9,  999.0,   43.1,   41.0,   41.9,   41.9,   41.3
2001/09/14 08:00,  999.0,  999.0,   -2.0,   -2.7,   -3.1,   -4.2,   -4.4,  999.0,  999.0,  999.0,  999.0,  999.0,  999.0,  999.0,  999.0,  999.0,  999.0,  999.0,  999.0,  999.0,  999.0,  999.0,  999.0,  999.0,  999.0,   31.8,  999.0,   29.9,  999.0,  999.0,  999.0,  999.0,  999.0,  999.0,  999.0,  999.0,  999.0,   38.0,   38.8,  999.0,  999.0,  999.0,   40.9,   41.1,  999.0,  999.0,  999.0,  999.0,   41.3,  999.0,   41.6,  999.0,  999.0,   41.8,   41.8,  999.0,   41.3,  999.0
2001/09/14 08:10,  999.0,  999.0,   -2.2,   -2.6,   -2.8,   -4.2,   -4.5,   -2.7,  999.0,  999.0,  999.0,  999.0,  999.0,  999.0,  999.0,  999.0,  999.0,  999.0,  999.0,  999.0,  999.0,  999.0,    8.3,  999.0,  999.0,  999.0,  999.0,  999.0,  999.0,  999.0,  999.0,  999.0,  999.0,  999.0,  999.0,  999.0,   38.8,  999.0,   40.0,   40.8,  999.0,   41.6,  999.0,   42.2,   42.6,   42.2,   41.3,   42.1,   41.6,   42.0,   42.2,  999.0,  999.0,  999.0,  999.0,  999.0,  999.0,   42.0
2001/09/14 08:20,  999.0,  999.0,   -3.1,   -3.1,   -3.3,   -4.6,   -4.9,  999.0,   -4.9,   -5.5,  999.0,  999.0,   -5.8,   -6.2,  999.0,  999.0,  999.0,  999.0,  999.0,  999.0,  999.0,  999.0,  999.0,  999.0,  999.0,  999.0,  999.0,  999.0,  999.0,  999.0,  999.0,  999.0,  999.0,  999.0,  999.0,   40.9,   41.4,   41.2,  999.0,   42.4,   42.1,   41.9,   42.5,   42.7,  999.0,   42.2,   42.4,   42.0,  999.0,   41.3,   42.1,   41.9,   41.6,   41.6,   42.1,   41.4,   42.0,   41.5
2001/09/14 08:30,  999.0,  999.0,  999.0,  999.0,   -2.9,   -4.3,   -4.5,  999.0,   -5.1,   -6.5,  999.0,  999.0,  999.0,  999.0,  999.0,  999.0,  999.0,  999.0,  999.0,  999.0,  999.0,  999.0,  999.0,  999.0,  999.0,  999.0,  999.0,  999.0,  999.0,   31.8,  999.0,  999.0,   39.7,  999.0,   39.9,   41.2,   42.0,   41.8,   41.6,  999.0,   42.0,   42.1,  999.0,   41.9,   41.8,   42.3,   41.2,   41.9,  999.0,   42.1,  999.0,   42.1,  999.0,   41.7,   41.6,   41.6,  999.0,   41.8
2001/09/14 08:40,  999.0,  999.0,  999.0,   -3.2,   -3.3,   -4.5,   -4.9,   -5.1,   -4.4,    7.7,  999.0,  999.0,  999.0,  999.0,    9.0,  999.0,  999.0,  999.0,  999.0,  999.0,  999.0,  999.0,  999.0,  999.0,  999.0,  999.0,  999.0,  999.0,  999.0,  999.0,  999.0,   34.8,  999.0,   37.5,   37.7,  999.0,  999.0,  999.0,   20.1,   42.2,   42.2,   42.1,   42.4,   41.5,  999.0,  999.0,  999.0,   27.6,  999.0,  999.0,  999.0,  999.0,  999.0,   42.4,  999.0,  999.0,  999.0,   41.3
2001/09/14 08:50,  999.0,  999.0,  999.0,  999.0,   -3.0,   -5.1,   -3.7,  999.0,  999.0,  999.0,  999.0,  999.0,  999.0,  999.0,  999.0,  999.0,  999.0,  999.0,  999.0,  999.0,  999.0,  999.0,  999.0,  999.0,  999.0,  999.0,  999.0,  999.0,  999.0,  999.0,  999.0,  999.0,  999.0,  999.0,  999.0,  999.0,  999.0,  999.0,   41.6,   42.4,  999.0,  999.0,  999.0,   41.2,   41.9,  999.0,  999.0,   41.8,   41.9,  999.0,  999.0,  999.0,  999.0,   41.7,   41.4,   42.0,  999.0,  999.0
2001/09/14 09:00,  999.0,  999.0,  999.0,  999.0,  999.0,   -2.9,   -3.7,   -3.4,  999.0,   -4.4,  999.0,  999.0,  999.0,  999.0,  999.0,  999.0,  999.0,  999.0,  999.0,  999.0,  999.0,  999.0,  999.0,  999.0,  999.0,  999.0,  999.0,  999.0,  999.0,  999.0,  999.0,  999.0,  999.0,  999.0,   38.9,  999.0,   41.5,  999.0,   42.0,   41.8,   41.9,  999.0,  999.0,  999.0,   41.5,  999.0,  999.0,  999.0,  999.0,  999.0,   41.6,  999.0,  999.0,  999.0,  999.0,  999.0,  999.0,   42.0
2001/09/14 09:10,  999.0,   -2.6,   -2.0,   -2.2,   -1.9,   -2.7,   -3.1,   -2.0,  999.0,   -3.1,  999.0,  999.0,  999.0,  999.0,  999.0,  999.0,  999.0,  999.0,  999.0,  999.0,  999.0,  999.0,  999.0,  999.0,  999.0,  999.0,  999.0,  999.0,  999.0,  999.0,  999.0,  999.0,  999.0,  999.0,  999.0,  999.0,  999.0,  999.0,   36.7,  999.0,  999.0,   36.3,  999.0,  999.0,  999.0,   40.7,  999.0,   39.8,  999.0,   43.2,   40.8,   41.5,   41.9,   41.7,   41.6,   41.1,   41.6,   42.1
2001/09/14 09:20,  999.0,   -2.6,   -2.4,   -2.5,   -3.3,   -4.1,  999.0,  999.0,  999.0,  999.0,   -0.8,  999.0,  999.0,  999.0,  999.0,  999.0,  999.0,  999.0,  999.0,  999.0,  999.0,  999.0,  999.0,  999.0,  999.0,  999.0,  999.0,  999.0,  999.0,  999.0,  999.0,  999.0,  999.0,  999.0,  999.0,  999.0,   34.7,  999.0,   36.3,   37.0,   38.2,   38.2,   39.1,  999.0,  999.0,  999.0,   40.7,  999.0,   40.9,  999.0,   41.3,   41.6,   41.7,   41.7,   41.7,  999.0,   41.8,  999.0
2001/09/14 09:30,  999.0,   -1.9,   -1.2,   -2.5,   -4.3,   -4.9,   -6.9,  999.0,  999.0,  999.0,  999.0,  999.0,  999.0,  999.0,  999.0,  999.0,  999.0,  999.0,  999.0,  999.0,  999.0,  999.0,  999.0,  999.0,  999.0,  999.0,  999.0,  999.0,  999.0,  999.0,  999.0,  999.0,   29.6,  999.0,  999.0,  999.0,  999.0,  999.0,  999.0,   34.6,   35.5,  999.0,  999.0,  999.0,  999.0,  999.0,  999.0,  999.0,  999.0,  999.0,  999.0,  999.0,  999.0,  999.0,  999.0,  999.0,  999.0,  999.0
2001/09/14 09:40,  999.0,   -3.6,   -2.7,   -0.5,   -1.7,   -2.7,   -5.1,   -3.5,   -1.6,  999.0,  999.0,   -5.6,  999.0,  999.0,  999.0,  999.0,  999.0,   -6.6,  999.0,  999.0,  999.0,  999.0,  999.0,  999.0,  999.0,  999.0,  999.0,  999.0,  999.0,  999.0,  999.0,  999.0,  999.0,  999.0,  999.0,  999.0,  999.0,  999.0,  999.0,  999.0,  999.0,  999.0,  999.0,  999.0,   36.0,  999.0,  999.0,  999.0,  999.0,  999.0,   35.3,   38.3,  999.0,  999.0,   39.4,  999.0,  999.0,  999.0
2001/09/14 09:50,  999.0,   -2.4,   -2.1,   -2.3,   -3.4,   -3.6,   -3.5,   -1.4,   -3.7,   -4.4,  999.0,   -5.5,  999.0,  999.0,  999.0,  999.0,  999.0,  999.0,  999.0,  999.0,  999.0,  999.0,  999.0,  999.0,  999.0,  999.0,  999.0,  999.0,  999.0,  999.0,  999.0,  999.0,  999.0,  999.0,  999.0,  999.0,  999.0,  999.0,  999.0,  999.0,  999.0,  999.0,  999.0,  999.0,   22.1,  999.0,  999.0,  999.0,  999.0,  999.0,  999.0,  999.0,  999.0,  999.0,  999.0,  999.0,  999.0,  999.0
2001/09/14 10:00,  999.0,   -3.5,   -2.3,   -2.6,   -3.1,   -3.9,   -4.5,   -3.9,   -4.3,   -4.4,  999.0,  999.0,  999.0,  999.0,  999.0,  999.0,  999.0,  999.0,  999.0,  999.0,  999.0,  999.0,  999.0,  999.0,  999.0,  999.0,  999.0,  999.0,  999.0,  999.0,  999.0,  999.0,  999.0,  999.0,  999.0,  999.0,  999.0,  999.0,  999.0,  999.0,  999.0,  999.0,  999.0,  999.0,  999.0,   21.7,   21.9,  999.0,  999.0,   21.2,   22.1,   22.2,  999.0,  999.0,  999.0,  999.0,   22.9,  999.0
2001/09/14 10:10,  999.0,   -1.2,   -0.0,    0.2,   -2.3,   -1.8,   -2.9,   -3.0,   -3.4,   -4.4,  999.0,  999.0,  999.0,  999.0,  999.0,  999.0,  999.0,  999.0,  999.0,  999.0,  999.0,  999.0,  999.0,  999.0,  999.0,  999.0,  999.0,  999.0,  999.0,  999.0,  999.0,  999.0,  999.0,  999.0,  999.0,  999.0,  999.0,  999.0,  999.0,  999.0,  999.0,  999.0,  999.0,  999.0,  999.0,   21.6,  999.0,  999.0,   22.1,   22.2,   21.8,  999.0,  999.0,  999.0,  999.0,  999.0,  999.0,  999.0
2001/09/14 10:20,  999.0,   -3.3,   -0.2,   -1.5,   -2.9,   -2.8,   -2.2,   -2.6,   -2.0,   -3.8,   -5.4,  999.0,  999.0,  999.0,  999.0,  999.0,  999.0,  999.0,  999.0,  999.0,  999.0,  999.0,  999.0,  999.0,  999.0,  999.0,  999.0,  999.0,  999.0,  999.0,  999.0,  999.0,  999.0,  999.0,  999.0,  999.0,  999.0,  999.0,  999.0,  999.0,  999.0,  999.0,  999.0,  999.0,  999.0,  999.0,  999.0,  999.0,  999.0,  999.0,  999.0,  999.0,  999.0,  999.0,  999.0,  999.0,  999.0,  999.0
2001/09/14 10:30,  999.0,   -2.2,   -4.4,   -4.3,   -4.8,   -4.5,   -4.4,   -4.7,   -5.4,   -5.8,   -7.0,  999.0,  999.0,  999.0,  999.0,  999.0,  999.0,  999.0,  999.0,  999.0,  999.0,  999.0,  999.0,  999.0,  999.0,  999.0,  999.0,  999.0,  999.0,  999.0,  999.0,  999.0,  999.0,  999.0,  999.0,  999.0,  999.0,  999.0,  999.0,  999.0,  999.0,  999.0,  999.0,  999.0,  999.0,  999.0,  999.0,  999.0,  999.0,  999.0,  999.0,  999.0,  999.0,  999.0,  999.0,  999.0,  999.0,  999.0
2001/09/14 10:40,  999.0,   -4.1,   -2.0,   -3.4,   -3.2,   -4.0,   -4.4,   -5.5,   -5.9,   -6.6,   -7.1,   -7.4,  999.0,  999.0,  999.0,  999.0,  999.0,  999.0,  999.0,  999.0,  999.0,  999.0,  999.0,  999.0,  999.0,  999.0,  999.0,  999.0,  999.0,  999.0,  -21.3,  -20.7,  -20.7,  999.0,  999.0,  -21.5,  -20.8,  -20.7,  -21.1,  -21.0,  999.0,  -21.9,  -21.1,  -20.9,  -20.7,  -21.4,  -21.3,  -20.7,  999.0,  -20.9,  -20.2,  999.0,  -20.8,  999.0,  999.0,  999.0,  999.0,  999.0
2001/09/14 10:50,  999.0,   -2.6,   -2.1,   -1.5,   -2.8,   -4.4,   -3.4,   -4.1,   -4.5,   -4.4,   -5.8,   -7.8,   -8.1,  999.0,   -7.6,  999.0,  999.0,  999.0,  999.0,  999.0,  999.0,  999.0,  999.0,  999.0,  999.0,  999.0,  999.0,  999.0,  999.0,  999.0,  999.0,  999.0,  999.0,  -21.3,  999.0,  999.0,  -21.3,  -21.5,  -20.8,  999.0,  999.0,  999.0,  -20.7,  -21.1,  999.0,  999.0,  -20.8,  999.0,  999.0,  999.0,  -21.2,  999.0,  -20.9,  999.0,  999.0,  999.0,  999.0,  -20.4
2001/09/14 11:00,  999.0,   -4.2,   -4.2,   -4.6,   -3.4,   -3.1,   -3.7,   -4.1,   -5.0,   -6.4,   -6.5,   -6.5,   -7.1,   -7.4,   -8.8,   -9.9,  999.0,  -10.1,   -9.8,  999.0,  999.0,  999.0,  999.0,  999.0,  999.0,  999.0,  999.0,  999.0,  999.0,  999.0,  999.0,  999.0,  999.0,  999.0,  999.0,  999.0,  999.0,  999.0,  999.0,  999.0,  999.0,  999.0,  999.0,  999.0,  999.0,  999.0,  999.0,  999.0,  999.0,  999.0,  999.0,  999.0,  999.0,  999.0,  999.0,  999.0,  999.0,  999.0
2001/09/14 11:10,  999.0,   -0.2,   -2.3,   -2.9,   -3.7,   -4.4,   -3.9,   -3.4,   -3.8,   -4.5,   -4.7,   -4.8,   -5.2,   -6.0,   -7.2,   -8.3,   -7.1,   -8.1,  -11.1,  999.0,  999.0,  999.0,  999.0,  999.0,  999.0,  999.0,  999.0,  999.0,  999.0,  999.0,  999.0,  999.0,  999.0,  999.0,  999.0,  999.0,  999.0,  999.0,  999.0,  999.0,  999.0,  999.0,  999.0,  999.0,  999.0,  999.0,  999.0,  999.0,  999.0,  999.0,  999.0,  999.0,  999.0,  999.0,  999.0,  999.0,  999.0,  999.0
2001/09/14 11:20,  999.0,  999.0,  999.0,  999.0,    1.6,   -2.3,   -2.5,   -4.0,   -4.2,   -5.9,   -6.9,   -7.1,   -7.6,   -9.5,  -10.0,  -13.1,  -12.5,  -12.1,  -13.1,  999.0,  999.0,  999.0,  999.0,  999.0,  999.0,  999.0,  999.0,  999.0,  999.0,  999.0,  999.0,  999.0,  999.0,  999.0,  999.0,  999.0,  999.0,  999.0,  999.0,  999.0,  999.0,  999.0,  999.0,  999.0,  999.0,  999.0,  999.0,  999.0,  999.0,  999.0,  999.0,  999.0,  999.0,  999.0,  999.0,  999.0,  999.0,  999.0
2001/09/14 11:30,  999.0,   -0.0,   -2.4,   -1.1,   -0.8,   -2.6,   -3.9,   -4.1,   -4.0,   -4.2,   -4.7,   -5.7,   -6.6,   -8.1,  -11.0,  999.0,  999.0,  999.0,  999.0,  999.0,  999.0,  999.0,  999.0,  999.0,  -21.1,  999.0,  999.0,  -20.9,  999.0,  -21.8,  999.0,  999.0,  -21.0,  999.0,  -22.2,  999.0,  -21.6,  -21.8,  999.0,  999.0,  999.0,  -22.0,  999.0,  999.0,  -22.4,  999.0,  999.0,  999.0,  999.0,  999.0,  999.0,  999.0,  999.0,  999.0,  999.0,  999.0,  999.0,  999.0
2001/09/14 11:40,  999.0,   -2.6,   -3.7,   -3.0,   -2.7,   -3.2,   -3.6,   -2.9,   -2.9,   -3.4,   -4.1,   -5.0,   -6.0,   -6.7,   -7.4,   -7.7,   -8.8,  -10.2,  -11.0,  -12.8,   -9.9,  -12.0,  999.0,  999.0,  999.0,  999.0,  999.0,  999.0,  -22.1,  -21.9,  999.0,  -22.0,  999.0,  -21.7,  -21.7,  999.0,  999.0,  -20.9,  -22.0,  999.0,  -21.5,  -21.3,  -21.4,  999.0,  -21.5,  999.0,  999.0,  999.0,  -22.7,  999.0,  -22.3,  999.0,  999.0,  999.0,  -22.4,  999.0,  999.0,  -22.3
2001/09/14 11:50,  999.0,   -2.9,   -3.5,   -3.8,   -3.7,   -3.3,   -3.4,   -3.5,   -3.4,   -4.3,   -5.1,   -5.6,   -6.8,   -7.2,   -7.9,   -8.2,   -8.2,   -9.6,  999.0,  -12.1,  999.0,  999.0,  999.0,  999.0,  999.0,  999.0,  -21.2,  -21.3,  -21.8,  -21.8,  -20.4,  -20.6,  -21.2,  -20.5,  -21.3,  -21.4,  -20.5,  -21.6,  999.0,  -21.3,  -21.0,  999.0,  999.0,  -20.6,  -21.8,  999.0,  -21.7,  999.0,  999.0,  -22.2,  -22.4,  999.0,  999.0,  -22.5,  -22.2,  999.0,  999.0,  999.0
2001/09/14 12:00,  999.0,   -2.6,   -2.7,   -4.5,   -4.5,   -4.5,   -4.6,   -3.7,   -3.0,   -3.6,   -4.6,   -5.7,   -6.0,   -6.5,   -6.7,   -7.9,   -8.1,   -9.3,  -10.1,  -10.7,   -8.8,   -8.6,   -7.8,  -11.0,  999.0,  999.0,  999.0,  999.0,  999.0,  999.0,  999.0,  999.0,  999.0,  999.0,  999.0,  999.0,  999.0,  999.0,  999.0,  999.0,  999.0,  999.0,  999.0,  999.0,  999.0,  999.0,  999.0,  999.0,  999.0,  999.0,  999.0,  999.0,  999.0,  999.0,  999.0,  999.0,  999.0,  999.0
2001/09/14 12:10,  999.0,   -4.5,   -5.2,   -3.9,   -3.9,   -4.4,   -5.1,   -4.3,   -4.5,   -5.0,   -5.4,   -5.7,   -6.7,   -8.1,   -8.6,   -9.6,   -9.7,   -9.1,  -10.1,  -11.4,  -11.4,  -12.6,  -10.9,  -13.2,  999.0,  999.0,  999.0,  999.0,  999.0,  999.0,  999.0,  999.0,  999.0,  999.0,  999.0,  999.0,  999.0,  999.0,  999.0,  999.0,  999.0,  999.0,  999.0,  999.0,  999.0,  999.0,  999.0,  999.0,  999.0,  999.0,  999.0,  999.0,  999.0,  999.0,  999.0,  999.0,  999.0,  999.0
2001/09/14 12:20,  999.0,   -2.2,   -1.6,   -1.6,   -1.7,   -4.6,   -3.5,   -2.8,   -3.0,   -3.4,   -3.5,   -4.3,   -5.4,   -4.9,   -5.1,   -5.0,   -6.3,   -6.5,   -7.3,   -7.5,   -8.4,   -9.0,  -10.9,  -10.7,  999.0,  999.0,  999.0,  999.0,  999.0,  999.0,  999.0,  999.0,  999.0,  999.0,  999.0,  999.0,  999.0,  999.0,  999.0,  999.0,  999.0,  999.0,  999.0,  999.0,  999.0,  999.0,  999.0,  999.0,  999.0,  999.0,  999.0,  999.0,  999.0,  999.0,  999.0,  999.0,  999.0,  999.0
2001/09/14 12:30,  999.0,   -3.9,   -3.4,   -3.5,   -2.9,   -3.3,   -5.3,   -4.9,   -4.5,   -4.8,   -4.7,   -4.4,   -5.0,   -5.5,   -6.2,   -6.4,   -7.1,   -7.4,   -9.2,  -10.6,  -11.4,  -11.9,  -12.9,  999.0,  999.0,  999.0,  999.0,  999.0,  999.0,  999.0,  999.0,  999.0,  999.0,  999.0,  999.0,  999.0,  999.0,  999.0,  999.0,  999.0,  999.0,  999.0,  999.0,  999.0,  999.0,  999.0,  999.0,  999.0,  999.0,  999.0,  999.0,  999.0,  999.0,  999.0,  999.0,  999.0,  999.0,  999.0
2001/09/14 12:40,  999.0,   -5.0,   -4.2,   -4.3,   -4.7,   -4.7,   -5.1,   -5.2,   -5.0,   -5.0,   -5.1,   -5.9,   -6.5,   -6.7,   -7.1,   -7.7,   -8.5,   -7.8,   -8.3,   -9.2,   -9.8,  -10.8,  -12.3,  -12.4,  999.0,  999.0,  999.0,  999.0,  999.0,  -20.8,  999.0,  999.0,  999.0,  999.0,  -20.3,  999.0,  999.0,  999.0,  999.0,  -19.6,  -19.9,  999.0,  999.0,  999.0,  999.0,  999.0,  999.0,  -19.5,  999.0,  -20.0,  999.0,  999.0,  -19.6,  999.0,  999.0,  999.0,  999.0,  999.0
2001/09/14 12:50,  999.0,   -0.3,   -3.5,   -3.2,   -2.5,   -2.6,   -3.3,   -3.4,   -3.9,   -4.4,   -5.4,   -5.5,   -6.2,   -6.7,   -7.0,   -7.2,   -7.9,   -8.7,   -9.4,  -10.0,  -10.3,  -10.8,   -9.6,   -6.8,  999.0,  999.0,  999.0,  -21.7,  999.0,  999.0,  999.0,  -19.2,  999.0,  999.0,  999.0,  999.0,  999.0,  999.0,  999.0,  999.0,  999.0,  999.0,  -19.4,  999.0,  999.0,  999.0,  999.0,  999.0,  999.0,  999.0,  -31.3,  999.0,  999.0,  999.0,  -31.0,  -27.5,  999.0,  999.0
2001/09/14 13:00,  999.0,  999.0,   -4.6,   -0.8,   -2.6,   -2.9,   -5.2,   -3.7,   -5.2,   -6.2,   -5.5,   -5.0,   -5.7,   -6.4,   -6.6,   -6.4,   -5.8,   -6.2,   -7.5,   -8.2,   -9.0,   -9.0,   -9.9,  -12.0,  999.0,  999.0,  999.0,  999.0,  999.0,  999.0,  999.0,  999.0,  999.0,  999.0,  999.0,  999.0,  999.0,  999.0,  999.0,  999.0,  999.0,  999.0,  999.0,  999.0,  999.0,  999.0,  999.0,  999.0,  999.0,  999.0,  999.0,  999.0,  999.0,  999.0,  999.0,  999.0,  999.0,  999.0
2001/09/14 13:10,  999.0,  999.0,  999.0,   -2.1,   -1.0,   -2.7,   -3.5,   -3.2,   -3.6,   -4.2,   -4.3,   -4.0,   -4.9,   -6.1,   -6.9,   -7.0,   -8.3,   -8.8,   -9.2,   -9.9,  -10.4,  -10.8,  -12.5,  -14.1,  999.0,  -19.5,  999.0,  999.0,  999.0,  -14.9,  999.0,  999.0,  999.0,  999.0,  999.0,  999.0,  999.0,  999.0,  999.0,  999.0,  -20.8,  999.0,  999.0,  999.0,  999.0,  999.0,  999.0,  999.0,  999.0,  999.0,  999.0,  999.0,  999.0,  999.0,  999.0,  999.0,  999.0,  999.0
2001/09/14 13:20,  999.0,   -3.3,   -3.6,   -1.6,   -3.2,   -2.9,   -2.6,   -0.6,   -1.7,   -1.9,   -2.6,   -1.4,   -4.5,   -4.2,   -4.4,   -5.9,   -7.9,   -8.1,   -8.9,   -9.3,  -10.2,   -9.9,  -11.6,  -11.2,  999.0,  999.0,  999.0,  999.0,  999.0,  999.0,  999.0,  -21.4,  999.0,  999.0,  -21.2,  -21.6,  -21.4,  999.0,  999.0,  999.0,  999.0,  999.0,  999.0,  999.0,  -20.5,  999.0,  999.0,  999.0,  999.0,  -20.5,  999.0,  999.0,  999.0,  999.0,  -20.3,  999.0,  -20.4,  999.0
2001/09/14 13:30,  999.0,  999.0,  999.0,    1.3,   -0.5,   -0.8,   -3.4,   -0.9,   -3.8,   -4.7,   -1.2,   -2.0,   -2.5,   -2.1,   -4.0,   -5.1,   -5.9,   -7.9,   -8.9,  -10.5,  -11.1,  -11.3,  -11.5,   -9.4,  -13.7,  -17.2,  999.0,  -17.2,  999.0,  999.0,  -14.6,  999.0,  999.0,  999.0,  999.0,  999.0,  999.0,  999.0,  -18.2,  999.0,  999.0,  999.0,  -19.1,  -20.3,  -20.3,  999.0,  -21.4,  999.0,  -21.1,  999.0,  -22.4,  -22.0,  999.0,  -22.3,  999.0,  999.0,  999.0,  999.0
2001/09/14 13:40,  999.0,   -0.3,   -0.6,   -1.4,   -2.1,   -2.7,   -2.1,   -3.9,   -3.7,   -1.7,   -3.9,   -3.8,   -5.1,   -3.1,   -4.0,   -4.9,   -4.0,   -6.9,   -7.1,   -9.1,   -8.4,   -9.0,  -10.4,   -9.6,   -9.3,   -9.7,  -11.5,  -10.8,  -11.8,  -10.3,  -14.9,  -11.9,  -16.2,  999.0,  -22.9,  999.0,  999.0,  999.0,  999.0,  999.0,  999.0,  999.0,  999.0,  999.0,  999.0,  999.0,  999.0,  999.0,  999.0,  999.0,  999.0,  999.0,  999.0,  999.0,  999.0,  999.0,  999.0,  999.0
2001/09/14 13:50,  999.0,   -0.9,   -0.5,   -1.7,   -2.9,   -3.4,   -3.7,   -3.3,   -3.8,   -4.3,   -3.9,   -4.2,   -5.3,   -6.5,   -7.0,   -7.2,   -8.1,   -8.0,  -10.1,   -8.5,   -8.6,  -10.2,  -11.0,  -11.1,  -12.7,  -14.0,  -15.6,  -14.0,  -11.6,  -13.7,  999.0,  999.0,  999.0,  999.0,  999.0,  999.0,  999.0,  999.0,  999.0,  999.0,  999.0,  999.0,  999.0,  999.0,  999.0,  999.0,  999.0,  999.0,  999.0,  999.0,  999.0,  999.0,  999.0,  999.0,  999.0,  999.0,  999.0,  999.0
2001/09/14 14:00,  999.0,   -0.5,   -1.2,   -0.8,   -1.3,   -1.7,   -2.6,   -1.9,   -2.4,   -3.6,   -4.5,   -5.0,   -5.7,   -6.2,   -6.4,   -7.7,   -9.1,   -9.2,   -9.6,   -9.2,   -8.9,   -9.7,  -10.5,  -11.5,  -11.5,  -11.7,  -12.3,  -11.4,  -12.1,  -11.8,  -12.8,  999.0,  999.0,  999.0,  999.0,  999.0,  999.0,  999.0,  999.0,  999.0,  999.0,  999.0,  999.0,  999.0,  999.0,  999.0,  999.0,  999.0,  999.0,  999.0,  999.0,  999.0,  999.0,  999.0,  999.0,  999.0,  999.0,  999.0
2001/09/14 14:10,  999.0,   -0.1,   -0.3,   -0.5,   -1.4,   -2.4,   -3.0,   -2.7,   -2.5,   -2.9,   -3.7,   -5.3,   -5.3,   -6.2,   -7.2,   -8.6,   -9.2,   -9.4,   -9.8,  -10.3,  -11.1,  -12.2,  -11.6,  -10.7,  -10.5,  -11.1,  -11.8,  -11.9,  -11.2,  -11.1,  -11.1,  -13.5,  999.0,  999.0,  999.0,  999.0,  999.0,  999.0,  999.0,  999.0,  999.0,  999.0,  999.0,  999.0,  999.0,  999.0,  999.0,  999.0,  999.0,  999.0,  999.0,  999.0,  999.0,  999.0,  999.0,  999.0,  999.0,  999.0
2001/09/14 14:20,  999.0,   -0.7,   -0.8,   -0.7,   -0.9,   -1.6,   -2.8,   -2.9,   -4.2,   -5.1,   -5.2,   -5.0,   -4.9,   -5.3,   -5.6,   -6.4,   -7.0,   -7.4,   -7.2,   -7.2,   -8.2,  -10.4,  999.0,  999.0,  999.0,  999.0,  999.0,  999.0,  999.0,  999.0,  999.0,  999.0,  999.0,  999.0,  999.0,  999.0,  999.0,  999.0,  999.0,  999.0,  999.0,  999.0,  999.0,  999.0,  999.0,  999.0,  999.0,  999.0,  999.0,  999.0,  999.0,  999.0,  999.0,  999.0,  999.0,  999.0,  999.0,  999.0
2001/09/14 14:30,  999.0,   -0.4,   -0.5,   -0.8,   -0.9,   -2.0,   -3.0,   -3.2,   -3.6,   -4.1,   -4.3,   -4.5,   -4.5,   -4.3,   -4.2,   -4.3,   -4.7,   -5.6,   -6.8,   -6.5,   -6.5,   -6.5,   -6.7,   -6.9,   -5.9,  999.0,  999.0,  999.0,  -10.3,   -8.9,  999.0,  999.0,   -5.3,   -3.4,   -2.6,   -1.1,  999.0,  999.0,   -0.9,  999.0,   -0.7,   -0.7,  999.0,  999.0,   -1.0,  999.0,  999.0,   -1.0,   -0.8,   -1.0,  999.0,   -0.7,  999.0,   -0.5,  999.0,  999.0,  999.0,   -0.6
2001/09/14 14:40,  999.0,   -0.2,   -0.4,   -0.4,   -0.7,   -1.5,   -3.0,   -3.5,   -3.6,   -4.1,   -4.2,   -4.5,   -4.9,   -5.2,   -5.2,   -5.6,   -5.9,   -6.8,   -7.2,   -8.6,   -9.3,  -10.2,  -10.3,  999.0,  999.0,  999.0,  999.0,  999.0,  999.0,  999.0,  999.0,  999.0,  999.0,  999.0,  999.0,  999.0,  999.0,  999.0,  999.0,  999.0,  999.0,  999.0,  999.0,  999.0,  999.0,  999.0,  999.0,  999.0,  999.0,  999.0,  999.0,  999.0,  999.0,  999.0,  999.0,  999.0,  999.0,  999.0
2001/09/14 14:50,  999.0,    0.0,   -0.9,   -0.8,   -1.6,   -1.9,   -3.4,   -3.6,   -4.0,   -4.4,   -4.4,   -4.4,   -4.5,   -4.2,   -4.2,   -5.5,   -7.6,   -8.6,   -9.9,   -9.2,   -9.1,  -11.7,  -11.2,   -6.2,   -8.4,   -9.2,   -9.5,  999.0,  999.0,  999.0,  999.0,  999.0,  999.0,  999.0,  999.0,  999.0,  999.0,  999.0,  999.0,  999.0,  999.0,  999.0,  999.0,  999.0,  999.0,  999.0,  999.0,  999.0,  999.0,  999.0,  999.0,  999.0,  999.0,  999.0,  999.0,  999.0,  999.0,  999.0
2001/09/14 15:00,  999.0,    0.8,   -0.4,   -0.5,   -1.5,   -2.1,   -3.6,   -3.2,   -3.1,   -4.0,   -3.9,   -4.5,   -5.0,   -6.0,   -6.2,   -7.3,   -6.9,   -9.3,  -10.4,  -10.0,   -8.0,  -11.0,  -11.0,  -12.0,  -12.6,  999.0,  999.0,  -13.5,  999.0,  999.0,   -9.0,   -7.6,   -6.5,  999.0,   -4.4,  999.0,   -3.7,  999.0,  999.0,  999.0,   -1.0,  999.0,   -1.4,   -1.5,  999.0,   -0.5,   -1.1,   -1.3,   -0.7,  999.0,  999.0,  999.0,   -0.4,   -1.4,   -0.2,  999.0,   -0.6,  999.0
2001/09/14 15:10,  999.0,   -0.5,   -0.7,   -1.0,   -1.7,   -2.5,   -4.7,   -4.7,   -5.7,   -6.1,   -5.7,   -5.0,   -5.1,   -5.1,   -5.4,   -5.5,   -5.5,   -5.3,   -6.3,   -7.0,   -8.0,   -9.3,  -11.2,  -11.9,  999.0,  999.0,  999.0,  999.0,  999.0,  999.0,  999.0,  999.0,  999.0,  999.0,  999.0,  999.0,  999.0,  999.0,  999.0,  999.0,  999.0,  999.0,  999.0,  999.0,  999.0,  999.0,  999.0,  999.0,  999.0,  999.0,  999.0,  999.0,  999.0,  999.0,  999.0,  999.0,  999.0,  999.0
2001/09/14 15:20,  999.0,  999.0,   -1.0,   -1.0,   -1.4,   -3.2,   -1.2,   -2.9,   -3.0,   -3.2,   -4.3,   -4.2,   -4.8,   -5.1,   -5.3,   -6.1,   -7.8,   -7.3,   -7.1,   -7.2,   -8.3,   -9.3,   -8.7,  -11.1,  -13.6,  999.0,  -16.8,  999.0,  999.0,  999.0,  999.0,  999.0,  999.0,  999.0,  999.0,  999.0,  999.0,  999.0,  999.0,  999.0,  999.0,  999.0,  999.0,  999.0,   -0.9,  999.0,  999.0,  999.0,  999.0,  999.0,  999.0,   -1.3,  999.0,   -1.3,  999.0,  999.0,  999.0,  999.0
2001/09/14 15:30,  999.0,   -0.6,   -1.9,   -1.8,   -2.6,   -2.5,   -2.8,   -4.3,   -5.2,   -5.4,   -3.6,   -4.5,   -4.9,   -5.1,   -5.0,   -5.6,   -6.2,   -6.8,   -7.5,   -9.5,  -10.9,  -11.1,  999.0,  999.0,  999.0,  999.0,  999.0,  999.0,  999.0,  999.0,  999.0,  999.0,  999.0,  999.0,  999.0,  999.0,  999.0,  999.0,  999.0,  999.0,  999.0,  999.0,  999.0,  999.0,  999.0,  999.0,  999.0,  999.0,  999.0,  999.0,  999.0,  999.0,  999.0,  999.0,  999.0,  999.0,  999.0,  999.0
2001/09/14 15:40,  999.0,   -0.8,   -1.7,   -1.8,   -2.6,   -3.2,   -4.1,   -4.0,   -4.6,   -5.6,   -5.3,   -3.9,   -5.5,   -5.3,   -6.9,   -7.2,   -7.4,   -7.6,   -8.7,  -10.0,   -8.3,   -9.8,  -11.7,  999.0,  999.0,  999.0,  999.0,  999.0,  999.0,  999.0,  999.0,  999.0,  999.0,  999.0,  999.0,  999.0,  999.0,  999.0,  999.0,  999.0,  999.0,  999.0,  999.0,  999.0,  999.0,  999.0,  999.0,  999.0,  999.0,  999.0,  999.0,  999.0,  999.0,  999.0,  999.0,  999.0,  999.0,  999.0
2001/09/14 15:50,  999.0,   -0.4,   -1.1,   -1.3,   -2.1,   -2.6,   -4.2,   -4.0,   -6.0,   -6.0,   -5.7,   -4.6,   -4.7,   -4.5,   -4.1,   -4.7,   -6.6,   -7.5,   -7.3,   -9.8,   -9.1,  -10.2,  -12.2,  999.0,  999.0,  999.0,  999.0,  999.0,  999.0,  999.0,  999.0,  999.0,   -6.4,  -12.8,  999.0,  999.0,  999.0,  999.0,   -7.2,  999.0,  999.0,  999.0,  999.0,  999.0,  999.0,   -1.4,  999.0,   -1.0,   -0.7,   -0.8,  999.0,    0.2,  999.0,   -1.2,   -0.4,   -0.3,   -1.0,   -0.3
2001/09/14 16:00,  999.0,   -0.3,   -0.3,   -0.6,   -1.3,   -1.5,   -3.5,   -3.3,   -4.2,   -4.9,   -2.7,   -3.2,   -4.6,   -4.6,   -4.3,   -4.8,   -5.9,   -6.6,   -6.9,   -8.3,   -9.6,  -10.3,  -11.3,  999.0,  999.0,  999.0,  999.0,  999.0,  999.0,  999.0,  999.0,  999.0,  999.0,  999.0,  999.0,  999.0,   -6.7,  999.0,  999.0,   -5.8,  999.0,   -4.0,  999.0,  999.0,  999.0,   -2.3,  999.0,  999.0,  999.0,   -1.6,   -0.9,   -1.3,   -0.5,   -0.4,   -0.6,   -0.7,   -0.2,   -0.9
2001/09/14 16:10,  999.0,   -1.1,   -1.2,   -1.3,   -2.0,   -3.5,   -4.5,   -3.8,   -2.9,   -5.9,   -4.2,   -3.3,   -3.4,   -3.9,   -4.6,   -4.9,   -5.4,   -5.8,   -8.8,   -8.2,   -9.7,   -9.2,  -10.5,  -10.8,  -10.6,  999.0,  999.0,  999.0,  999.0,  -15.1,  999.0,  999.0,  -13.1,  999.0,  999.0,  999.0,  999.0,  999.0,  999.0,   -7.3,   -6.4,  999.0,   -5.3,  999.0,  999.0,   -2.7,   -1.7,  999.0,  999.0,   -0.5,  999.0,   -0.9,  999.0,  999.0,  999.0,   -0.9,  999.0,  999.0
2001/09/14 16:20,  999.0,   -0.9,   -2.6,   -2.9,   -4.2,   -3.5,   -7.2,   -5.6,   -5.1,   -5.5,   -4.3,   -3.9,   -4.3,   -4.4,   -3.8,   -4.6,   -5.4,   -6.7,   -7.1,   -7.9,   -8.1,   -8.6,  -10.6,   -8.4,   -6.6,  999.0,  999.0,  999.0,   -9.0,  999.0,   -5.3,  999.0,  999.0,  999.0,   -4.0,  999.0,  999.0,   -2.4,  999.0,  999.0,   -1.3,  999.0,  999.0,  999.0,   -0.3,   -0.7,   -1.1,   -0.6,  999.0,   -0.4,   -1.0,  999.0,   -0.9,  999.0,   -0.6,  999.0,  999.0,  999.0
2001/09/14 16:30,  999.0,   -2.0,   -2.9,   -4.3,   -5.7,   -6.6,   -6.9,   -5.4,   -5.9,   -5.5,   -4.6,   -5.1,   -5.8,   -5.5,   -5.7,   -7.4,   -8.1,   -8.9,   -9.5,  -10.4,  999.0,  999.0,   -7.8,   -9.2,  -13.2,  999.0,  999.0,  999.0,  999.0,  999.0,  999.0,   -4.4,   -4.8,   -1.7,   -1.5,   -0.2,  999.0,   -1.0,   -0.2,   -1.1,  999.0,   -0.4,   -1.1,   -0.7,   -0.7,   -0.5,   -0.5,   -0.8,   -1.0,   -0.4,   -1.0,   -0.6,   -0.6,   -0.5,  999.0,   -1.0,   -0.7,   -0.9
2001/09/14 16:40,  999.0,   -3.8,   -5.7,   -6.1,   -7.2,   -9.4,   -9.6,   -6.6,   -6.5,   -6.7,   -5.5,   -5.4,   -6.9,   -8.7,   -7.7,   -7.8,  999.0,  999.0,  999.0,  999.0,   -8.4,   -7.3,   -5.9,  -16.0,  -16.2,  -14.5,  999.0,  -12.8,   -9.6,   -8.5,   -5.7,   -4.4,   -1.8,   -1.3,  999.0,  999.0,   -0.4,   -0.8,   -0.5,   -1.2,   -0.8,   -0.7,   -0.8,   -0.5,   -0.5,   -0.5,   -1.1,   -0.8,  999.0,   -1.2,  999.0,  999.0,   -0.9,   -0.7,  999.0,  999.0,   -0.8,   -0.1
2001/09/14 16:50,  999.0,   -2.3,   -3.8,   -5.7,   -5.6,   -7.3,   -7.3,   -8.2,   -8.2,   -7.6,   -6.9,   -7.4,   -8.6,   -9.6,   -9.9,  999.0,  999.0,  999.0,  999.0,   -9.8,  -10.7,  -12.8,  -15.0,  -17.1,  999.0,  -19.1,  999.0,   -9.7,  -17.2,  -24.0,   -3.9,  -22.7,   -0.7,  999.0,  999.0,  -16.1,  999.0,  -17.0,  -11.7,  -17.2,  999.0,  -21.2,  -14.7,  -21.6,   -0.7,  999.0,   -0.9,  999.0,   -0.7,  999.0,  -27.7,  -20.9,  999.0,  -20.9,  -21.2,  -28.2,  -21.8,  999.0
2001/09/14 17:00,  999.0,   -2.4,   -2.3,   -1.6,   -1.4,   -0.9,   -3.8,   -6.0,   -6.4,  999.0,  999.0,   -6.6,   -7.4,   -8.5,   -8.9,  999.0,   -9.4,   -9.3,  999.0,  -10.2,  -10.7,  -11.7,  -13.8,  -14.7,  -18.7,  999.0,  999.0,  -20.3,  999.0,  999.0,  -16.0,  -23.4,  -19.2,  -31.0,  -14.3,  -19.1,  999.0,  -15.3,  -15.4,  -26.1,  -16.8,  -21.5,  999.0,  -33.3,  -16.9,  -17.0,  -18.3,  999.0,  -26.4,  999.0,  -19.1,  -19.6,  -21.5,  -41.3,  -25.0,  -33.5,  -37.0,  999.0
2001/09/14 17:10,  999.0,   -2.2,   -2.5,   -2.1,   -2.6,   -3.4,   -4.6,   -5.1,   -4.3,  999.0,  999.0,   -5.0,   -5.8,   -6.8,   -8.1,   -8.7,   -9.0,   -9.9,  -10.7,  -10.5,  -12.1,  -13.1,  -15.7,  999.0,  -24.6,  -26.1,  -26.8,  999.0,  -30.5,  -31.8,  -33.0,  -35.3,  -35.8,  999.0,  -39.2,  -40.2,  -41.7,  -41.8,  999.0,  -42.1,  999.0,  -41.5,  -42.2,  -41.7,  999.0,  -42.0,  -41.9,  -41.8,  999.0,  999.0,  -41.8,  -41.5,  -41.8,  -41.7,  -41.7,  -41.6,  999.0,  -41.3
2001/09/14 17:20,  999.0,   -1.0,   -1.0,   -1.4,   -1.6,   -4.5,   -5.8,   -6.4,   -2.0,  999.0,  999.0,  999.0,   -6.7,   -7.1,   -7.5,   -7.7,   -8.5,   -8.7,   -9.5,  -11.3,  -13.0,  -14.5,  -16.4,  -22.3,  -25.2,  -26.2,  -28.6,  999.0,  999.0,  -32.7,  -34.7,  -37.6,  -38.0,  999.0,  -40.8,  -40.4,  -40.9,  -41.4,  -41.3,  -41.4,  -42.0,  -41.6,  -41.4,  -41.5,  -41.8,  -41.4,  -41.3,  -41.6,  -41.7,  -41.6,  -41.8,  -41.9,  -42.0,  -42.1,  -42.0,  -41.9,  999.0,  -41.8
2001/09/14 17:30,  999.0,   -1.4,   -1.7,   -2.9,   -4.2,   -5.3,   -5.7,   -6.0,  999.0,  999.0,   -6.2,   -5.0,   -6.4,   -7.7,   -7.9,   -8.2,   -9.0,   -8.4,  -10.1,  -11.6,  -13.8,  -17.7,  999.0,  999.0,  -26.5,  999.0,  999.0,  -31.7,  999.0,  -33.6,  -36.3,  -37.5,  -39.0,  999.0,  -41.5,  -41.7,  -41.9,  -41.8,  -41.5,  999.0,  -41.7,  -41.7,  999.0,  999.0,  999.0,  -41.6,  999.0,  -41.4,  -41.6,  -41.5,  -41.4,  -42.1,  -41.6,  -42.0,  -41.8,  -41.2,  -42.3,  999.0
2001/09/14 17:40,  999.0,   -1.0,   -2.6,   -2.2,   -3.6,   -6.0,   -5.9,  999.0,  999.0,   -5.4,   -5.6,   -5.6,   -6.6,   -7.4,   -8.2,   -9.4,   -8.5,   -7.8,   -9.5,  -11.3,  -12.7,  -15.4,  999.0,  -24.1,  -26.0,  999.0,  -29.6,  -31.1,  -32.7,  -33.8,  -36.0,  999.0,  -39.1,  -41.3,  -39.7,  -40.9,  -41.1,  -41.9,  999.0,  -41.7,  -41.7,  -42.1,  999.0,  -41.9,  999.0,  -41.8,  999.0,  999.0,  -42.1,  999.0,  -42.2,  -42.3,  -42.2,  999.0,  -42.0,  -41.7,  -42.2,  -41.9
2001/09/14 17:50,  999.0,   -2.5,   -3.2,   -3.6,   -3.8,   -4.0,   -2.9,    0.1,   -0.6,   -3.7,   -5.3,   -6.1,   -7.2,   -8.0,  999.0,  999.0,  999.0,   -7.7,   -9.1,  -10.9,  999.0,  999.0,  -20.8,  999.0,  -25.2,  -25.6,  999.0,  999.0,  -29.6,  -30.9,  999.0,  -32.1,  999.0,  -35.2,  999.0,  -38.7,  -39.4,  999.0,  999.0,  999.0,  -41.9,  -41.7,  999.0,  -41.6,  999.0,  999.0,  -41.2,  -41.6,  -41.5,  999.0,  -41.5,  -41.9,  -42.0,  999.0,  999.0,  -42.1,  -41.9,  -41.5
2001/09/14 18:00,  999.0,   -2.1,   -4.1,   -3.7,   -3.6,   -4.5,  999.0,   -3.8,   -4.0,   -5.3,   -5.5,   -5.4,   -6.0,  999.0,  999.0,   -6.7,   -8.3,   -9.6,  -10.2,  999.0,  999.0,  999.0,  999.0,  -24.4,  -26.7,  -27.8,  -27.4,  -29.6,  -31.1,  -30.8,  -35.2,  -33.3,  999.0,  -35.9,  -37.7,  999.0,  -40.1,  -39.3,  -40.5,  -40.8,  999.0,  999.0,  -42.5,  -42.2,  -42.1,  -41.9,  -41.6,  -41.6,  -41.5,  -41.4,  -41.8,  999.0,  -41.0,  -41.4,  -41.3,  -41.7,  -41.8,  -41.6
2001/09/14 18:10,  999.0,  999.0,   -3.0,   -3.4,   -4.7,   -5.9,   -6.8,  999.0,   -5.6,   -6.1,   -6.6,   -6.6,   -6.1,   -6.5,   -6.4,   -7.2,   -8.6,  -10.1,  -11.5,  -12.0,  999.0,  999.0,  999.0,  999.0,  -27.9,  -29.1,  -30.5,  999.0,  -32.8,  -33.2,  999.0,  -36.4,  -36.0,  -35.7,  -38.6,  -40.7,  999.0,  -41.1,  -41.8,  -41.7,  -42.0,  999.0,  -42.3,  -41.8,  -42.0,  999.0,  -41.5,  999.0,  -42.4,  -41.7,  -41.3,  -41.0,  999.0,  -41.9,  -41.3,  -41.6,  999.0,  999.0
2001/09/14 18:20,  999.0,  999.0,  999.0,   -2.0,   -2.4,   -1.8,   -0.8,  999.0,   -3.3,   -4.2,  999.0,  999.0,  999.0,   -9.5,   -6.1,   -6.9,   -8.2,   -9.5,  -11.1,  999.0,  999.0,  999.0,  999.0,  999.0,  999.0,  999.0,  999.0,  -27.3,  -32.2,  999.0,  999.0,  -38.1,  999.0,  -27.7,  999.0,  999.0,  -41.9,  999.0,  -18.4,  -31.7,  999.0,  -21.2,  999.0,  999.0,  -31.4,  -27.6,  -27.9,  999.0,  -21.6,  -28.1,  -28.3,  999.0,  999.0,  999.0,  999.0,  -41.7,  999.0,  -41.5
2001/09/14 18:30,  999.0,  999.0,   -1.8,   -1.2,   -2.2,   -2.4,    0.5,   -0.6,   -0.3,   -0.5,    0.5,   -2.8,   -3.9,   -4.2,   -5.8,   -5.3,   -8.0,   -9.8,  -11.2,  999.0,  999.0,  999.0,  999.0,  999.0,  999.0,  999.0,  999.0,  -16.7,  999.0,  999.0,  999.0,  999.0,  999.0,  999.0,  999.0,  999.0,  999.0,  -41.2,  999.0,  999.0,  999.0,  999.0,  999.0,  -41.5,  999.0,  999.0,  999.0,  -41.9,  999.0,  -42.2,  999.0,  999.0,  999.0,  -41.4,  -41.8,  -41.1,  -41.8,  999.0
2001/09/14 18:40,  999.0,  999.0,   -3.2,   -3.2,   -2.6,   -2.9,   -3.5,    0.1,   -1.5,   -0.6,   -3.7,   -1.2,   -4.0,   -6.5,   -5.1,   -6.0,   -7.7,   -8.9,   -9.6,  999.0,  999.0,  999.0,  999.0,  999.0,  999.0,  999.0,  999.0,  999.0,  999.0,  999.0,  999.0,  999.0,  999.0,  999.0,  -40.4,  -39.8,  999.0,  999.0,  -41.3,  999.0,  999.0,  999.0,  999.0,  -41.8,  -41.6,  -41.5,  -41.8,  -41.4,  -41.3,  999.0,  -41.5,  -41.6,  999.0,  999.0,  -42.2,  999.0,  -42.3,  -42.4
2001/09/14 18:50,  999.0,   -3.9,   -3.3,   -1.5,   -3.2,   -2.5,   -4.6,   -2.7,   -0.0,   -2.0,   -1.3,   -3.4,   -5.4,  999.0,  999.0,  999.0,   -7.8,   -7.7,  999.0,  999.0,  999.0,  999.0,  999.0,  999.0,  999.0,  999.0,  999.0,  999.0,  999.0,  -35.6,  999.0,  -37.6,  -39.8,  -37.3,  999.0,  -41.5,  999.0,  999.0,  -41.5,  -41.3,  -41.6,  -41.8,  -42.5,  -42.2,  -42.1,  999.0,  -41.9,  -41.6,  -41.7,  999.0,  999.0,  999.0,  -41.8,  -41.8,  -42.0,  -41.9,  -41.4,  999.0
2001/09/14 19:00,  999.0,  999.0,   -0.6,   -0.2,   -2.4,   -1.7,   -2.3,   -3.3,   -2.9,   -2.2,   -0.8,   -0.9,   -2.7,   -5.3,  999.0,  999.0,   -6.4,   -6.8,   -0.9,  999.0,  999.0,  999.0,  999.0,  999.0,  999.0,  999.0,  999.0,  999.0,  999.0,  999.0,  999.0,  999.0,  -32.8,  999.0,  999.0,  999.0,  999.0,  999.0,  999.0,  999.0,  -39.8,  999.0,  999.0,  999.0,  -33.0,  -41.5,  -41.9,  999.0,  999.0,  999.0,  -42.1,  999.0,  999.0,  999.0,  -41.0,  999.0,  -41.9,  999.0
2001/09/14 19:10,  999.0,  999.0,    1.5,    0.3,   -2.1,   -1.2,   -4.1,   -3.7,   -0.5,   -0.3,   -1.1,   -0.6,   -1.6,   -1.8,  999.0,   -7.7,   -8.9,  -10.2,  999.0,  -13.6,  999.0,  999.0,  999.0,  999.0,   -9.0,  999.0,  -16.5,  999.0,  999.0,  999.0,  999.0,  999.0,  999.0,  999.0,  999.0,  999.0,  999.0,  -37.5,  999.0,  -41.3,  -41.5,  -41.7,  999.0,  999.0,  999.0,  999.0,  999.0,  999.0,  999.0,  999.0,  999.0,  999.0,  999.0,  999.0,  999.0,  999.0,  999.0,  -41.7
2001/09/14 19:20,  999.0,   -1.4,    2.8,    2.4,   -0.9,   -1.4,   -2.3,   -1.3,   -0.6,   -2.1,   -2.8,   -6.9,   -3.5,   -7.2,  999.0,   -6.5,  -10.0,  -11.3,  -11.8,  -14.0,  999.0,  999.0,  999.0,  999.0,  999.0,  999.0,  999.0,  999.0,  999.0,  999.0,  999.0,  999.0,  999.0,  999.0,  999.0,  999.0,  -41.0,  -41.3,  999.0,  -41.2,  999.0,  -41.3,  -41.5,  -42.1,  -42.0,  -41.5,  -41.8,  -40.9,  -40.6,  999.0,  -40.8,  -40.6,  -42.3,  -41.6,  -42.3,  -41.2,  -41.9,  999.0
2001/09/14 19:30,  999.0,  999.0,   -1.3,   -1.8,   -3.4,   -4.3,   -2.7,   -2.3,   -1.5,   -4.7,   -5.8,   -7.2,   -5.1,   -2.8,   -7.3,   -9.4,  -10.3,  -11.9,  999.0,  999.0,  999.0,  -19.2,  -20.2,  -26.1,  999.0,  999.0,  999.0,  999.0,  999.0,  999.0,  999.0,  999.0,  -34.9,  -37.4,  -36.5,  999.0,  999.0,  -41.2,  -40.5,  -41.2,  -41.1,  -41.6,  -41.9,  999.0,  -41.5,  999.0,  -41.6,  999.0,  -41.2,  999.0,  -41.9,  999.0,  999.0,  -41.1,  999.0,  999.0,  999.0,  999.0
2001/09/14 19:40,  999.0,   -2.9,   -3.1,   -3.1,   -3.1,   -4.7,   -5.5,   -3.7,   -0.4,   -2.5,   -4.7,   -7.9,   -9.4,  999.0,   -6.6,   -7.9,   -9.1,  999.0,  999.0,  999.0,  -12.6,  999.0,  -19.2,  999.0,  999.0,  -29.2,  999.0,  999.0,  -28.5,  -29.5,  -31.9,  -31.3,  -35.2,  -35.7,  -35.5,  -35.3,  -34.5,  -37.4,  -36.3,  -36.4,  999.0,  999.0,  -41.3,  -40.2,  999.0,  -41.6,  -42.1,  999.0,  999.0,  -42.1,  999.0,  999.0,  -41.7,  -41.4,  999.0,  999.0,  -41.6,  999.0
2001/09/14 19:50,  999.0,   -3.4,   -3.5,   -4.8,   -5.1,   -6.3,   -3.9,   -3.7,   -4.5,   -2.7,   -5.6,   -7.6,   -8.9,   -5.3,   -7.5,   -7.6,  -10.1,  999.0,  999.0,  999.0,  999.0,  999.0,  -20.3,  999.0,  999.0,  999.0,  999.0,  -29.8,  999.0,  -31.3,  -34.9,  -35.6,  -35.8,  -34.7,  -34.3,  999.0,  -37.1,  -36.4,  -38.7,  -40.6,  999.0,  -41.2,  -41.4,  999.0,  -42.0,  999.0,  999.0,  -42.0,  999.0,  -42.0,  -41.6,  -41.8,  -42.3,  -41.8,  -41.9,  999.0,  999.0,  -41.9
2001/09/14 20:00,  999.0,   -2.5,   -1.0,   -3.3,   -3.8,   -5.3,   -5.7,   -1.3,   -0.2,  999.0,   -2.4,   -4.0,   -4.7,   -5.9,   -5.1,   -7.0,  999.0,  999.0,  999.0,  999.0,  999.0,  -16.1,  999.0,  999.0,  999.0,  999.0,  -29.4,  999.0,  -32.4,  999.0,  999.0,  999.0,  -36.0,  -37.3,  -37.6,  -39.1,  -39.7,  999.0,  -41.2,  999.0,  999.0,  -41.9,  -41.7,  999.0,  999.0,  999.0,  -41.7,  -42.0,  -42.4,  999.0,  999.0,  999.0,  -42.5,  -41.8,  -41.7,  999.0,  -42.2,  999.0
2001/09/14 20:10,  999.0,   -4.7,   -2.6,   -3.7,   -5.2,   -6.6,   -1.3,   -1.6,   -1.7,   -3.4,   -5.6,   -7.5,   -6.4,   -5.6,   -7.0,   -7.6,  999.0,  999.0,  999.0,  999.0,  999.0,  -14.2,  -17.3,  999.0,  999.0,  999.0,  999.0,  999.0,  999.0,  -32.7,  999.0,  -35.1,  -36.8,  999.0,  999.0,  999.0,  -39.8,  -20.7,  999.0,  -41.6,  -27.0,  -27.5,  999.0,  999.0,  -20.7,  999.0,  -41.8,  999.0,  999.0,  999.0,  999.0,  999.0,  -41.9,  -27.9,  -41.7,  -27.6,  -42.3,  -41.9
2001/09/14 20:20,  999.0,   -2.7,   -2.2,   -3.4,   -4.9,   -6.8,  999.0,   -4.4,   -5.2,   -5.6,   -6.6,   -8.0,  -10.0,   -9.5,   -7.0,  999.0,  999.0,  999.0,   -9.3,  -11.2,  -14.8,  -16.6,  -20.2,  999.0,  999.0,  -31.4,  999.0,  999.0,  999.0,  -35.8,  999.0,  999.0,  -39.2,  -40.5,  -41.6,  -40.6,  -41.6,  -39.8,  -41.3,  -41.6,  -42.1,  -40.9,  999.0,  -42.0,  -41.6,  -42.0,  -41.9,  999.0,  -41.6,  999.0,  -41.8,  -42.2,  999.0,  -42.0,  -41.6,  999.0,  -41.6,  -42.0
2001/09/14 20:30,  999.0,   -2.6,    1.0,   -3.5,   -4.0,   -5.1,   -3.3,   -1.9,   -5.5,   -5.3,   -6.9,   -8.6,  999.0,   -7.5,  999.0,   -8.0,   -6.8,   -9.8,  999.0,   -9.6,  999.0,  -15.7,  -19.0,  -22.0,  999.0,  999.0,  999.0,  999.0,  999.0,  999.0,  999.0,  999.0,  999.0,  999.0,  999.0,  999.0,  999.0,  999.0,  999.0,  999.0,  999.0,  999.0,  999.0,  999.0,  999.0,  999.0,  999.0,  999.0,  999.0,  999.0,  999.0,  999.0,  999.0,  999.0,  999.0,  999.0,  999.0,  999.0
2001/09/14 20:40,  999.0,   -3.0,   -2.2,   -4.5,   -4.4,   -4.3,   -5.3,   -3.0,   -3.0,   -5.2,   -5.1,   -4.2,   -5.3,   -8.6,   -9.9,   -8.0,  999.0,   -8.0,  999.0,  999.0,  -13.2,  -14.4,  -17.9,  -22.1,  999.0,  999.0,  999.0,  999.0,  999.0,  999.0,  999.0,  999.0,  999.0,  999.0,  999.0,  999.0,  999.0,  999.0,  999.0,  999.0,  999.0,  999.0,  999.0,  999.0,  999.0,  999.0,  999.0,  999.0,  999.0,  999.0,  999.0,  999.0,  999.0,  999.0,  999.0,  999.0,  999.0,  999.0
2001/09/14 20:50,  999.0,   -1.2,   -2.5,   -4.3,   -6.1,   -4.6,   -2.9,   -2.9,   -1.4,   -6.6,   -2.5,   -4.7,   -5.7,  999.0,   -7.5,   -6.1,   -5.0,   -7.0,   -8.7,   -6.9,  -10.6,  -13.7,  -16.6,  -17.1,  999.0,  999.0,  999.0,  999.0,  999.0,  999.0,  999.0,  999.0,  999.0,  999.0,  999.0,  999.0,  999.0,  999.0,  999.0,  999.0,  999.0,  999.0,  999.0,  999.0,  999.0,  999.0,  999.0,  999.0,  999.0,  999.0,  999.0,  999.0,  -33.6,  999.0,  999.0,  999.0,  999.0,  999.0
2001/09/14 21:00,  999.0,   -3.1,   -0.5,   -3.4,   -5.2,   -4.5,   -1.9,   -1.3,   -2.3,   -6.0,   -3.4,   -1.6,   -2.2,  999.0,  999.0,  999.0,   -6.5,   -5.9,   -8.9,  999.0,   -8.7,  -13.5,  -14.0,  -17.2,  999.0,  999.0,  999.0,  999.0,  999.0,  999.0,  999.0,  999.0,  999.0,  999.0,  999.0,  999.0,  999.0,  999.0,  999.0,  999.0,  999.0,  999.0,  999.0,  999.0,  999.0,  999.0,  999.0,  999.0,  999.0,  999.0,  999.0,  999.0,  999.0,  999.0,  -36.3,  999.0,  -37.6,  -38.3
2001/09/14 21:10,  999.0,  999.0,   -3.6,   -3.8,   -4.2,   -5.4,   -3.7,   -4.0,   -5.5,   -4.6,   -4.4,   -1.5,  999.0,  999.0,  999.0,  999.0,   -6.1,  -11.3,  999.0,  999.0,  -11.7,  -17.0,  -20.0,  -26.1,  999.0,  999.0,  999.0,  999.0,  999.0,  999.0,  999.0,  999.0,  999.0,  999.0,  -41.5,  -42.1,  -41.8,  -41.9,  -41.5,  999.0,  999.0,  -41.7,  999.0,  -42.6,  -42.1,  -41.8,  -41.7,  999.0,  -41.5,  999.0,  -41.9,  999.0,  -42.1,  -41.8,  -41.4,  -42.2,  -41.8,  -41.9
2001/09/14 21:20,  999.0,   -1.7,   -2.3,   -3.5,   -4.4,   -6.1,  999.0,   -1.6,   -0.2,   -5.6,   -4.0,  999.0,  999.0,  999.0,  999.0,  999.0,  999.0,  999.0,  999.0,  999.0,  -17.1,  999.0,  999.0,  -24.5,  999.0,  999.0,  999.0,  999.0,  999.0,  999.0,  -37.3,  999.0,  -37.4,  999.0,  -39.4,  -41.9,  999.0,  -41.6,  -41.5,  -41.1,  -41.7,  -41.2,  -41.7,  -41.7,  999.0,  -41.7,  -41.8,  -41.7,  -42.0,  999.0,  999.0,  -41.6,  -41.6,  -42.0,  -42.0,  -41.7,  999.0,  -41.8
2001/09/14 21:30,  999.0,  999.0,   -4.5,   -4.4,   -5.8,   -6.0,   -6.8,  999.0,  999.0,  999.0,   -3.6,  999.0,  999.0,   -7.5,  999.0,  999.0,  999.0,  999.0,  999.0,  999.0,  999.0,  999.0,  999.0,  -24.1,  -28.7,  -29.6,  999.0,  -31.8,  -32.4,  999.0,  999.0,  999.0,  -35.8,  -37.7,  -38.0,  -40.2,  -40.7,  -41.6,  -41.5,  -42.0,  -41.8,  -41.6,  -41.9,  -42.0,  -41.6,  -42.2,  -41.6,  -42.1,  -41.8,  -42.3,  -41.9,  -42.2,  -41.6,  -42.0,  -42.0,  -42.1,  999.0,  -42.5
2001/09/14 21:40,  999.0,   -2.9,   -4.3,   -4.8,   -5.4,   -5.3,   -3.4,   -1.9,   -1.7,   -3.2,  999.0,  999.0,  999.0,   -7.9,  999.0,  999.0,  999.0,  999.0,  999.0,  999.0,  999.0,  999.0,  999.0,  999.0,  999.0,  999.0,  -30.8,  -31.4,  -33.8,  999.0,  -35.4,  999.0,  999.0,  -36.2,  -40.1,  -40.0,  999.0,  999.0,  -41.7,  -42.0,  999.0,  -41.6,  -41.5,  -41.9,  -41.4,  -41.0,  -41.2,  -41.2,  999.0,  -41.3,  -41.9,  -41.5,  -41.5,  999.0,  -41.9,  -42.1,  -41.8,  -41.9
2001/09/14 21:50,  999.0,  999.0,   -6.0,   -4.2,   -5.5,   -6.2,   -4.3,   -4.6,  999.0,  999.0,  999.0,  999.0,  999.0,  999.0,  -20.9,  -21.0,  999.0,  -21.1,  -21.5,  -22.7,  -25.0,  -25.5,  999.0,  999.0,  -29.1,  -29.4,  -30.9,  -31.9,  999.0,  -32.9,  -34.4,  -35.6,  -36.8,  -38.3,  -39.9,  999.0,  -40.1,  -41.4,  -41.7,  -41.3,  -42.3,  -41.4,  -41.8,  999.0,  999.0,  -41.8,  -41.8,  -42.0,  999.0,  -42.3,  999.0,  999.0,  -41.8,  999.0,  -41.8,  -41.9,  -41.6,  -41.9
2001/09/14 22:00,  999.0,   -1.9,   -3.3,   -6.1,   -5.0,   -4.1,   -6.5,   -4.9,   -3.0,  -11.5,  999.0,  -14.1,  999.0,  999.0,  999.0,  999.0,  -21.6,  999.0,  999.0,  -23.0,  999.0,  -20.4,  999.0,  999.0,  999.0,  -30.3,  -31.8,  -31.0,  -33.6,  -34.0,  -35.1,  -36.1,  -38.0,  999.0,  -40.6,  -41.8,  -41.1,  -41.2,  999.0,  -41.5,  999.0,  -41.8,  -42.2,  -41.8,  999.0,  999.0,  -41.2,  -41.8,  -42.1,  999.0,  -41.9,  -41.7,  999.0,  -42.0,  999.0,  -41.9,  999.0,  999.0
2001/09/14 22:10,  999.0,  999.0,   -1.4,   -4.9,   -6.2,   -6.4,   -2.0,  -12.6,  -16.1,  -21.7,  999.0,  -18.8,   -8.3,   -9.7,  -20.7,  -21.4,  -21.2,  -21.8,  -23.2,  -24.2,  -20.0,  -14.7,  -21.1,  -21.5,  -27.5,  -32.2,  -31.9,  999.0,  999.0,  -34.2,  999.0,  999.0,  999.0,  -39.7,  -41.2,  -41.1,  999.0,  -41.8,  -41.6,  -41.8,  -42.0,  -42.5,  999.0,  -41.7,  999.0,  -41.5,  -41.9,  999.0,  999.0,  -41.5,  999.0,  -42.0,  999.0,  -41.7,  -41.8,  -41.6,  -41.7,  -41.8
2001/09/14 22:20,  999.0,   -1.2,   -1.0,  999.0,   -5.4,   -6.0,  -11.2,   -5.1,  -10.6,  -17.4,  999.0,  -16.7,  -12.4,  -10.9,  -21.6,  999.0,  999.0,  -22.7,  -23.8,  -19.2,  -17.2,  -22.0,  -15.9,  -20.4,  -31.0,  999.0,  -33.6,  -33.1,  -33.4,  -34.4,  -36.6,  -37.0,  -38.7,  999.0,  -41.5,  999.0,  -41.8,  -42.4,  -42.3,  999.0,  -42.3,  -42.1,  -41.9,  -41.9,  999.0,  -41.7,  -41.5,  -41.8,  999.0,  -40.5,  999.0,  -41.9,  999.0,  -41.9,  999.0,  -41.7,  -41.5,  -41.8
2001/09/14 22:30,  999.0,   -4.3,  -14.2,   -2.3,   -8.6,  -11.3,   -6.3,   -7.0,  -21.5,  -21.1,  999.0,  -10.9,  -12.9,  999.0,  999.0,  -21.0,  -21.2,  -21.4,  999.0,   -8.9,   -7.7,   -9.1,  -12.5,  -18.5,  -26.1,  -28.2,  -29.2,  999.0,  999.0,  -32.3,  -34.5,  -35.3,  999.0,  -36.8,  999.0,  -38.7,  -40.4,  -41.1,  -41.5,  -41.9,  -42.1,  -42.3,  -42.3,  999.0,  999.0,  -41.4,  -41.7,  -41.8,  -41.8,  999.0,  -41.7,  -41.9,  -41.7,  -41.5,  999.0,  -41.5,  -42.0,  999.0
2001/09/14 22:40,  999.0,   -1.0,   -0.8,   -3.3,   -3.6,   -6.3,   -5.7,   -1.9,  999.0,  999.0,  999.0,   -6.3,   -7.2,   -9.2,  -11.1,  999.0,  999.0,  999.0,  999.0,   -6.6,   -7.7,  -10.7,  -13.2,  -16.1,  -14.4,  999.0,  -15.7,  -20.9,  -20.8,  999.0,  -16.2,  -18.6,  -23.7,  -25.4,  -27.7,  -35.6,  999.0,  -37.2,  -29.9,  -32.8,  -40.1,  999.0,  -31.4,  -28.5,  -41.3,  -41.5,  -20.9,  -41.8,  -41.7,  -28.3,  -33.4,  -28.1,  -33.7,  -33.6,  -42.0,  -21.3,  -31.4,  -28.0
2001/09/14 22:50,  999.0,  -10.5,   -5.3,   -6.1,   -6.6,   -7.2,   -6.2,   -6.3,  999.0,   -3.3,   -5.1,   -6.1,   -7.3,   -9.3,  999.0,  999.0,  999.0,  999.0,  999.0,  -10.3,  -12.6,  -14.5,  -17.4,  999.0,  999.0,  999.0,  999.0,  999.0,  -29.9,  -31.6,  -30.9,  -31.3,  -32.4,  -33.2,  -35.1,  999.0,  -35.8,  -36.6,  -35.7,  -38.4,  999.0,  -38.1,  -39.7,  -38.9,  -40.1,  999.0,  -39.6,  -40.8,  -42.2,  -41.2,  -41.5,  -42.2,  -42.0,  -41.8,  -41.9,  -41.8,  -41.7,  999.0
2001/09/14 23:00,  999.0,  999.0,  999.0,  999.0,   -4.9,  999.0,  999.0,   -5.9,   -6.1,   -6.3,   -5.1,   -6.3,   -7.2,   -9.6,  999.0,  999.0,  999.0,  999.0,  999.0,   -9.3,  999.0,  999.0,  -15.3,  999.0,  999.0,  999.0,  999.0,  999.0,  999.0,  999.0,  999.0,  999.0,  999.0,  999.0,  999.0,  999.0,  999.0,  999.0,  999.0,  999.0,  999.0,  999.0,  999.0,  999.0,  999.0,  999.0,  999.0,  999.0,  999.0,  999.0,  999.0,  999.0,  999.0,  999.0,  999.0,  999.0,  999.0,  999.0
2001/09/14 23:10,  999.0,  999.0,  999.0,  999.0,  999.0,  999.0,  999.0,  999.0,  999.0,   -6.7,  999.0,   -8.0,   -7.1,   -8.6,  999.0,  999.0,  999.0,  999.0,   -8.9,  999.0,  -12.0,  999.0,  -16.8,  -20.0,  999.0,  -27.3,  -28.2,  -29.0,  999.0,  -31.6,  -31.0,  -32.7,  -33.2,  -34.7,  -34.8,  -34.5,  999.0,  -36.8,  -37.4,  -38.6,  999.0,  -39.5,  999.0,  -39.4,  -40.7,  -41.7,  999.0,  -41.0,  -41.6,  -41.4,  -41.6,  -41.5,  -41.6,  -41.5,  999.0,  -41.7,  -41.7,  -41.4
2001/09/14 23:20,  999.0,  999.0,  999.0,   -5.1,   -3.1,  999.0,  999.0,   -2.7,  999.0,  999.0,   -4.7,   -0.7,  999.0,   -3.4,  999.0,  999.0,  999.0,  999.0,  999.0,   -9.5,  -12.7,  -13.1,  -14.6,  -17.3,  -21.5,  -26.3,  999.0,  999.0,  999.0,  -29.3,  -30.6,  999.0,  -31.9,  999.0,  -34.0,  -35.1,  999.0,  999.0,  -37.3,  -37.9,  999.0,  -40.5,  -41.0,  -41.6,  999.0,  999.0,  -41.7,  999.0,  -41.9,  999.0,  999.0,  -41.8,  999.0,  -42.3,  999.0,  -41.6,  -41.4,  -41.6
2001/09/14 23:30,  999.0,  999.0,  999.0,   -4.4,  999.0,   -5.7,   -6.4,   -7.2,   -5.7,  999.0,  999.0,   -1.7,  999.0,  999.0,  999.0,  999.0,  999.0,  999.0,   -8.8,   -9.9,  -11.7,  -13.5,  -16.3,  -20.1,  999.0,  -27.8,  -28.3,  -30.8,  -29.4,  -32.5,  -30.9,  -33.1,  -32.5,  999.0,  -34.1,  -38.4,  -38.2,  -38.9,  -39.3,  -39.7,  -40.3,  -41.9,  -41.0,  -42.0,  -41.9,  -42.1,  -41.8,  -42.1,  999.0,  -41.9,  999.0,  999.0,  -42.0,  999.0,  -41.8,  -42.2,  -42.2,  -41.7
2001/09/14 23:40,  999.0,  999.0,  999.0,  999.0,   -6.1,   -6.5,   -5.2,   -4.7,   -5.2,   -4.6,  999.0,  999.0,  999.0,  999.0,  999.0,  999.0,   -7.6,   -9.0,   -9.4,   -9.9,  -10.8,  -13.3,  -15.7,  -18.4,  999.0,  -27.8,  999.0,  -29.3,  -30.9,  -31.2,  -31.7,  -32.8,  -34.3,  999.0,  -35.8,  999.0,  -37.3,  -39.3,  -38.9,  -40.8,  999.0,  -41.1,  -41.6,  999.0,  -41.4,  -41.6,  -41.5,  -41.3,  -41.7,  999.0,  -42.2,  -41.8,  -41.9,  -42.1,  -41.2,  999.0,  999.0,  -41.8
2001/09/14 23:50,  999.0,  999.0,   -2.3,   -6.1,   -4.3,  999.0,  999.0,   -5.5,   -8.0,   -6.8,   -2.3,   -0.5,  999.0,  999.0,  999.0,  999.0,   -7.4,   -9.0,   -9.3,  999.0,  999.0,  -12.5,  -16.6,  -21.6,  999.0,  -30.4,  999.0,  999.0,  -32.9,  -32.8,  999.0,  999.0,  -36.8,  -36.8,  -39.8,  999.0,  999.0,  -40.3,  -39.0,  999.0,  999.0,  -42.0,  -41.7,  999.0,  -42.4,  -42.1,  -41.9,  999.0,  -41.8,  -41.9,  -41.5,  -41.3,  -41.7,  -41.3,  -42.2,  -41.8,  -41.6,  -41.7
